Wetterdaten: Donnerstag, 11.05.2017
Datum Zeit Temp. Aussen Temp. o. S. +5cm Feuchte Auss BlattFeu 1 Luftdruck Regen Sonnenschein Regendauer Solar Windben Empfang
11.05.2017 00:00 11,1 C 10,0 C 7,2 C 68 % 0 lf 1003,5 hPa 0,0 l/m 0 min 0 min 0 W/m 4,2 km/h (1 Bft) 97,83 %
11.05.2017 00:02 11,1 C 10,0 C 7,2 C 68 % 0 lf 1003,5 hPa 0,0 l/m 0 min 0 min 0 W/m 4,2 km/h (1 Bft) 95,45 %
11.05.2017 00:04 11,0 C 10,6 C 7,8 C 68 % 0 lf 1003,5 hPa 0,0 l/m 0 min 0 min 0 W/m 10,5 km/h (2 Bft) 95,74 %
11.05.2017 00:06 11,0 C 10,0 C 7,8 C 68 % 0 lf 1003,5 hPa 0,0 l/m 0 min 0 min 0 W/m 10,5 km/h (2 Bft) 97,30 %
11.05.2017 00:10 10,9 C 10,0 C 7,8 C 69 % 0 lf 1003,4 hPa 0,0 l/m 0 min 0 min 0 W/m 12,6 km/h (3 Bft) 96,77 %
11.05.2017 00:12 10,9 C 10,0 C 7,8 C 69 % 0 lf 1003,4 hPa 0,0 l/m 0 min 0 min 0 W/m 10,5 km/h (2 Bft) 100,00 %
11.05.2017 00:14 10,9 C 10,0 C 7,8 C 69 % 0 lf 1003,4 hPa 0,0 l/m 0 min 0 min 0 W/m 10,5 km/h (2 Bft) 100,00 %
11.05.2017 00:16 10,8 C 10,6 C 7,8 C 69 % 0 lf 1003,4 hPa 0,0 l/m 0 min 0 min 0 W/m 8,4 km/h (2 Bft) 97,87 %
11.05.2017 00:18 10,8 C 10,0 C 7,8 C 70 % 0 lf 1003,4 hPa 0,0 l/m 0 min 0 min 0 W/m 8,4 km/h (2 Bft) 97,87 %
11.05.2017 00:20 10,8 C 10,0 C 7,8 C 70 % 0 lf 1003,4 hPa 0,0 l/m 0 min 0 min 0 W/m 6,3 km/h (2 Bft) 100,00 %
11.05.2017 00:22 10,8 C 10,0 C 7,8 C 70 % 0 lf 1003,4 hPa 0,0 l/m 0 min 0 min 0 W/m 10,5 km/h (2 Bft) 100,00 %
11.05.2017 00:24 10,8 C 10,0 C 7,8 C 70 % 0 lf 1003,4 hPa 0,0 l/m 0 min 0 min 0 W/m 10,5 km/h (2 Bft) 97,83 %
11.05.2017 00:26 10,8 C 10,0 C 7,8 C 70 % 0 lf 1003,4 hPa 0,0 l/m 0 min 0 min 0 W/m 10,5 km/h (2 Bft) 97,87 %
11.05.2017 00:28 10,7 C 10,0 C 7,8 C 70 % 0 lf 1003,4 hPa 0,0 l/m 0 min 0 min 0 W/m 12,6 km/h (3 Bft) 100,00 %
11.05.2017 00:30 10,7 C 10,0 C 7,8 C 70 % 0 lf 1003,3 hPa 0,0 l/m 0 min 0 min 0 W/m 14,6 km/h (3 Bft) 100,00 %
11.05.2017 00:32 10,7 C 10,0 C 7,8 C 70 % 0 lf 1003,3 hPa 0,0 l/m 0 min 0 min 0 W/m 14,6 km/h (3 Bft) 100,00 %
11.05.2017 00:34 10,7 C 10,0 C 7,8 C 70 % 0 lf 1003,3 hPa 0,0 l/m 0 min 0 min 0 W/m 10,5 km/h (2 Bft) 97,87 %
11.05.2017 00:36 10,7 C 10,0 C 7,8 C 70 % 0 lf 1003,3 hPa 0,0 l/m 0 min 0 min 0 W/m 10,5 km/h (2 Bft) 100,00 %
11.05.2017 00:38 10,6 C 10,0 C 7,8 C 71 % 0 lf 1003,3 hPa 0,0 l/m 0 min 0 min 0 W/m 8,4 km/h (2 Bft) 100,00 %
11.05.2017 00:40 10,6 C 10,0 C 7,2 C 71 % 0 lf 1003,3 hPa 0,0 l/m 0 min 0 min 0 W/m 6,3 km/h (2 Bft) 97,87 %
11.05.2017 00:42 10,6 C 9,4 C 7,2 C 71 % 0 lf 1003,2 hPa 0,0 l/m 0 min 0 min 0 W/m 6,3 km/h (2 Bft) 97,92 %
11.05.2017 00:44 10,6 C 10,0 C 7,2 C 71 % 0 lf 1003,2 hPa 0,0 l/m 0 min 0 min 0 W/m 10,5 km/h (2 Bft) 100,00 %
11.05.2017 00:46 10,6 C 10,0 C 7,2 C 71 % 0 lf 1003,1 hPa 0,0 l/m 0 min 0 min 0 W/m 8,4 km/h (2 Bft) 97,83 %
11.05.2017 00:48 10,5 C 10,0 C 7,2 C 71 % 0 lf 1003,1 hPa 0,0 l/m 0 min 0 min 0 W/m 6,3 km/h (2 Bft) 100,00 %
11.05.2017 00:50 10,5 C 9,4 C 7,2 C 71 % 0 lf 1003,1 hPa 0,0 l/m 0 min 0 min 0 W/m 4,2 km/h (1 Bft) 97,87 %
11.05.2017 00:52 10,5 C 9,4 C 7,2 C 71 % 0 lf 1003,1 hPa 0,0 l/m 0 min 0 min 0 W/m 6,3 km/h (2 Bft) 97,22 %
11.05.2017 00:54 10,4 C 9,4 C 7,2 C 71 % 0 lf 1003,1 hPa 0,0 l/m 0 min 0 min 0 W/m 6,3 km/h (2 Bft) 97,87 %
11.05.2017 00:56 10,4 C 9,4 C 7,2 C 71 % 0 lf 1003,1 hPa 0,0 l/m 0 min 0 min 0 W/m 10,5 km/h (2 Bft) 100,00 %
11.05.2017 00:58 10,4 C 9,4 C 7,2 C 71 % 0 lf 1003,1 hPa 0,0 l/m 0 min 0 min 0 W/m 10,5 km/h (2 Bft) 100,00 %
11.05.2017 01:00 10,4 C 9,4 C 7,8 C 71 % 0 lf 1003,0 hPa 0,0 l/m 0 min 0 min 0 W/m 6,3 km/h (2 Bft) 97,87 %
11.05.2017 01:02 10,4 C 9,4 C 7,8 C 71 % 0 lf 1003,0 hPa 0,0 l/m 0 min 0 min 0 W/m 8,4 km/h (2 Bft) 100,00 %
11.05.2017 01:04 10,3 C 9,4 C 7,2 C 71 % 0 lf 1003,0 hPa 0,0 l/m 0 min 0 min 0 W/m 6,3 km/h (2 Bft) 100,00 %
11.05.2017 01:06 10,3 C 9,4 C 7,2 C 71 % 0 lf 1003,0 hPa 0,0 l/m 0 min 0 min 0 W/m 6,3 km/h (2 Bft) 100,00 %
11.05.2017 01:08 10,3 C 9,4 C 7,2 C 72 % 0 lf 1003,0 hPa 0,0 l/m 0 min 0 min 0 W/m 6,3 km/h (2 Bft) 93,48 %
11.05.2017 01:10 10,3 C 9,4 C 7,2 C 72 % 0 lf 1003,0 hPa 0,0 l/m 0 min 0 min 0 W/m 8,4 km/h (2 Bft) 100,00 %
11.05.2017 01:12 10,2 C 9,4 C 7,2 C 72 % 0 lf 1003,0 hPa 0,0 l/m 0 min 0 min 0 W/m 10,5 km/h (2 Bft) 100,00 %
11.05.2017 01:14 10,2 C 9,4 C 7,2 C 72 % 0 lf 1002,9 hPa 0,0 l/m 0 min 0 min 0 W/m 10,5 km/h (2 Bft) 97,87 %
11.05.2017 01:16 10,2 C 8,9 C 6,7 C 72 % 0 lf 1002,9 hPa 0,0 l/m 0 min 0 min 0 W/m 4,2 km/h (1 Bft) 100,00 %
11.05.2017 01:18 10,2 C 8,9 C 6,7 C 72 % 0 lf 1002,9 hPa 0,0 l/m 0 min 0 min 0 W/m 8,4 km/h (2 Bft) 100,00 %
11.05.2017 01:20 10,1 C 8,9 C 6,7 C 72 % 0 lf 1002,8 hPa 0,0 l/m 0 min 0 min 0 W/m 6,3 km/h (2 Bft) 97,83 %
11.05.2017 01:22 10,1 C 8,9 C 6,7 C 72 % 0 lf 1002,8 hPa 0,0 l/m 0 min 0 min 0 W/m 8,4 km/h (2 Bft) 100,00 %
11.05.2017 01:24 10,1 C 8,9 C 6,7 C 72 % 0 lf 1002,8 hPa 0,0 l/m 0 min 0 min 0 W/m 8,4 km/h (2 Bft) 97,87 %
11.05.2017 01:26 10,0 C 8,9 C 6,7 C 72 % 0 lf 1002,7 hPa 0,0 l/m 0 min 0 min 0 W/m 6,3 km/h (2 Bft) 95,74 %
11.05.2017 01:28 10,0 C 8,9 C 6,7 C 72 % 0 lf 1002,7 hPa 0,0 l/m 0 min 0 min 0 W/m 10,5 km/h (2 Bft) 97,87 %
11.05.2017 01:30 10,0 C 8,9 C 6,7 C 72 % 0 lf 1002,7 hPa 0,0 l/m 0 min 0 min 0 W/m 12,6 km/h (3 Bft) 95,74 %
11.05.2017 01:32 9,9 C 8,9 C 6,7 C 73 % 0 lf 1002,7 hPa 0,0 l/m 0 min 0 min 0 W/m 8,4 km/h (2 Bft) 100,00 %
11.05.2017 01:34 9,9 C 8,9 C 6,7 C 73 % 0 lf 1002,7 hPa 0,0 l/m 0 min 0 min 0 W/m 10,5 km/h (2 Bft) 97,83 %
11.05.2017 01:36 9,9 C 8,9 C 6,7 C 73 % 0 lf 1002,7 hPa 0,0 l/m 0 min 0 min 0 W/m 6,3 km/h (2 Bft) 96,00 %
11.05.2017 01:38 9,8 C 8,3 C 6,7 C 73 % 0 lf 1002,6 hPa 0,0 l/m 0 min 0 min 0 W/m 6,3 km/h (2 Bft) 93,62 %
11.05.2017 01:40 9,8 C 8,3 C 6,7 C 73 % 0 lf 1002,6 hPa 0,0 l/m 0 min 0 min 0 W/m 6,3 km/h (2 Bft) 93,62 %
11.05.2017 01:42 9,8 C 8,3 C 6,7 C 73 % 0 lf 1002,6 hPa 0,0 l/m 0 min 0 min 0 W/m 8,4 km/h (2 Bft) 91,67 %
11.05.2017 01:44 9,7 C 8,3 C 6,7 C 73 % 0 lf 1002,6 hPa 0,0 l/m 0 min 0 min 0 W/m 6,3 km/h (2 Bft) 93,62 %
11.05.2017 01:46 9,7 C 8,3 C 6,7 C 74 % 0 lf 1002,5 hPa 0,0 l/m 0 min 0 min 0 W/m 8,4 km/h (2 Bft) 93,48 %
11.05.2017 01:48 9,7 C 8,3 C 6,1 C 74 % 0 lf 1002,5 hPa 0,0 l/m 0 min 0 min 0 W/m 6,3 km/h (2 Bft) 93,62 %
11.05.2017 01:50 9,6 C 8,3 C 6,1 C 74 % 0 lf 1002,5 hPa 0,0 l/m 0 min 0 min 0 W/m 10,5 km/h (2 Bft) 93,62 %
11.05.2017 01:52 9,6 C 8,3 C 6,1 C 74 % 0 lf 1002,5 hPa 0,0 l/m 0 min 0 min 0 W/m 4,2 km/h (1 Bft) 89,19 %
11.05.2017 01:54 9,6 C 8,3 C 6,1 C 74 % 0 lf 1002,4 hPa 0,0 l/m 0 min 0 min 0 W/m 6,3 km/h (2 Bft) 93,62 %
11.05.2017 01:56 9,6 C 8,3 C 6,1 C 74 % 0 lf 1002,4 hPa 0,0 l/m 0 min 0 min 0 W/m 4,2 km/h (1 Bft) 93,48 %
11.05.2017 01:58 9,5 C 8,3 C 6,1 C 74 % 0 lf 1002,4 hPa 0,0 l/m 0 min 0 min 0 W/m 4,2 km/h (1 Bft) 89,36 %
11.05.2017 02:00 9,5 C 8,3 C 6,1 C 74 % 0 lf 1002,4 hPa 0,0 l/m 0 min 0 min 0 W/m 6,3 km/h (2 Bft) 91,49 %
11.05.2017 02:02 9,4 C 8,3 C 6,1 C 74 % 0 lf 1002,4 hPa 0,0 l/m 0 min 0 min 0 W/m 10,5 km/h (2 Bft) 91,49 %
11.05.2017 02:04 9,4 C 7,8 C 6,1 C 74 % 0 lf 1002,4 hPa 0,0 l/m 0 min 0 min 0 W/m 6,3 km/h (2 Bft) 87,23 %
11.05.2017 02:06 9,4 C 8,3 C 6,1 C 74 % 0 lf 1002,4 hPa 0,0 l/m 0 min 0 min 0 W/m 8,4 km/h (2 Bft) 93,48 %
11.05.2017 02:08 9,3 C 7,8 C 6,1 C 74 % 0 lf 1002,4 hPa 0,0 l/m 0 min 0 min 0 W/m 8,4 km/h (2 Bft) 87,23 %
11.05.2017 02:10 9,3 C 8,3 C 6,1 C 74 % 0 lf 1002,3 hPa 0,0 l/m 0 min 0 min 0 W/m 6,3 km/h (2 Bft) 91,49 %
11.05.2017 02:12 9,3 C 8,3 C 6,1 C 75 % 0 lf 1002,3 hPa 0,0 l/m 0 min 0 min 0 W/m 8,4 km/h (2 Bft) 93,62 %
11.05.2017 02:14 9,2 C 7,8 C 6,1 C 75 % 0 lf 1002,3 hPa 0,0 l/m 0 min 0 min 0 W/m 6,3 km/h (2 Bft) 87,23 %
11.05.2017 02:16 9,2 C 7,8 C 6,1 C 75 % 0 lf 1002,3 hPa 0,0 l/m 0 min 0 min 5 W/m 10,5 km/h (2 Bft) 89,36 %
11.05.2017 02:18 9,2 C 8,3 C 6,1 C 75 % 0 lf 1002,2 hPa 0,0 l/m 0 min 0 min 1 W/m 10,5 km/h (2 Bft) 91,30 %
11.05.2017 02:20 9,1 C 8,3 C 6,1 C 75 % 0 lf 1002,2 hPa 0,0 l/m 0 min 0 min 0 W/m 10,5 km/h (2 Bft) 93,62 %
11.05.2017 02:22 9,1 C 7,8 C 6,1 C 75 % 0 lf 1002,2 hPa 0,0 l/m 0 min 0 min 0 W/m 8,4 km/h (2 Bft) 95,74 %
11.05.2017 02:24 9,1 C 7,8 C 6,1 C 75 % 0 lf 1002,1 hPa 0,0 l/m 0 min 0 min 0 W/m 12,6 km/h (3 Bft) 95,74 %
11.05.2017 02:26 9,0 C 8,3 C 6,1 C 76 % 0 lf 1002,1 hPa 0,0 l/m 0 min 0 min 0 W/m 10,5 km/h (2 Bft) 93,62 %
11.05.2017 02:28 9,0 C 8,3 C 6,1 C 76 % 0 lf 1002,2 hPa 0,0 l/m 0 min 0 min 0 W/m 10,5 km/h (2 Bft) 95,74 %
11.05.2017 02:30 9,0 C 8,3 C 6,7 C 76 % 0 lf 1002,2 hPa 0,0 l/m 0 min 0 min 0 W/m 10,5 km/h (2 Bft) 97,83 %
11.05.2017 02:32 8,9 C 8,9 C 6,7 C 76 % 0 lf 1002,1 hPa 0,0 l/m 0 min 0 min 0 W/m 10,5 km/h (2 Bft) 95,74 %
11.05.2017 02:34 8,9 C 8,3 C 6,7 C 76 % 0 lf 1002,1 hPa 0,0 l/m 0 min 0 min 0 W/m 12,6 km/h (3 Bft) 91,49 %
11.05.2017 02:36 8,9 C 8,3 C 6,1 C 76 % 0 lf 1002,0 hPa 0,0 l/m 0 min 0 min 0 W/m 10,5 km/h (2 Bft) 96,30 %
11.05.2017 02:38 8,9 C 8,3 C 6,1 C 76 % 0 lf 1002,0 hPa 0,0 l/m 0 min 0 min 0 W/m 10,5 km/h (2 Bft) 95,74 %
11.05.2017 02:40 8,9 C 8,3 C 6,1 C 76 % 0 lf 1002,0 hPa 0,0 l/m 0 min 0 min 1 W/m 6,3 km/h (2 Bft) 91,49 %
11.05.2017 02:42 8,8 C 7,8 C 6,1 C 76 % 0 lf 1001,9 hPa 0,0 l/m 0 min 0 min 3 W/m 8,4 km/h (2 Bft) 93,75 %
11.05.2017 02:44 8,8 C 7,8 C 6,1 C 76 % 0 lf 1001,9 hPa 0,0 l/m 0 min 0 min 0 W/m 10,5 km/h (2 Bft) 97,83 %
11.05.2017 02:46 8,8 C 7,8 C 6,1 C 76 % 0 lf 1001,9 hPa 0,0 l/m 0 min 0 min 0 W/m 6,3 km/h (2 Bft) 97,87 %
11.05.2017 02:48 8,8 C 7,8 C 6,1 C 76 % 0 lf 1001,9 hPa 0,0 l/m 0 min 0 min 0 W/m 10,5 km/h (2 Bft) 97,87 %
11.05.2017 02:50 8,8 C 7,8 C 6,1 C 76 % 0 lf 1001,9 hPa 0,0 l/m 0 min 0 min 0 W/m 6,3 km/h (2 Bft) 95,74 %
11.05.2017 02:52 8,8 C 8,3 C 6,1 C 77 % 0 lf 1001,9 hPa 0,0 l/m 0 min 0 min 0 W/m 10,5 km/h (2 Bft) 97,87 %
11.05.2017 02:54 8,7 C 8,3 C 6,1 C 76 % 0 lf 1001,9 hPa 0,0 l/m 0 min 0 min 0 W/m 6,3 km/h (2 Bft) 97,87 %
11.05.2017 02:56 8,7 C 7,8 C 6,1 C 76 % 0 lf 1001,8 hPa 0,0 l/m 0 min 0 min 0 W/m 6,3 km/h (2 Bft) 100,00 %
11.05.2017 02:58 8,7 C 7,8 C 6,1 C 76 % 0 lf 1001,8 hPa 0,0 l/m 0 min 0 min 0 W/m 8,4 km/h (2 Bft) 100,00 %
11.05.2017 03:00 8,7 C 7,8 C 5,6 C 76 % 0 lf 1001,7 hPa 0,0 l/m 0 min 0 min 0 W/m 6,3 km/h (2 Bft) 95,74 %
11.05.2017 03:02 8,7 C 7,8 C 5,6 C 76 % 0 lf 1001,8 hPa 0,0 l/m 0 min 0 min 0 W/m 10,5 km/h (2 Bft) 93,88 %
11.05.2017 03:04 8,7 C 7,2 C 5,6 C 77 % 0 lf 1001,7 hPa 0,0 l/m 0 min 0 min 0 W/m 6,3 km/h (2 Bft) 95,74 %
11.05.2017 03:06 8,7 C 7,2 C 5,6 C 77 % 0 lf 1001,7 hPa 0,0 l/m 0 min 0 min 0 W/m 6,3 km/h (2 Bft) 100,00 %
11.05.2017 03:08 8,6 C 7,2 C 5,6 C 77 % 0 lf 1001,6 hPa 0,0 l/m 0 min 0 min 0 W/m 6,3 km/h (2 Bft) 97,87 %
11.05.2017 03:10 8,6 C 7,8 C 5,6 C 77 % 0 lf 1001,7 hPa 0,0 l/m 0 min 0 min 0 W/m 6,3 km/h (2 Bft) 100,00 %
11.05.2017 03:12 8,6 C 7,8 C 5,6 C 77 % 0 lf 1001,7 hPa 0,0 l/m 0 min 0 min 0 W/m 4,2 km/h (1 Bft) 97,92 %
11.05.2017 03:14 8,6 C 7,8 C 5,6 C 77 % 0 lf 1001,6 hPa 0,0 l/m 0 min 0 min 0 W/m 6,3 km/h (2 Bft) 97,87 %
11.05.2017 03:16 8,6 C 7,8 C 5,0 C 77 % 0 lf 1001,6 hPa 0,0 l/m 0 min 0 min 0 W/m 6,3 km/h (2 Bft) 97,87 %
11.05.2017 03:18 8,5 C 7,8 C 5,6 C 77 % 0 lf 1001,6 hPa 0,0 l/m 0 min 0 min 0 W/m 4,2 km/h (1 Bft) 100,00 %
11.05.2017 03:20 8,5 C 7,2 C 5,0 C 77 % 0 lf 1001,5 hPa 0,0 l/m 0 min 0 min 0 W/m 4,2 km/h (1 Bft) 97,87 %
11.05.2017 03:22 8,5 C 7,2 C 5,0 C 77 % 0 lf 1001,6 hPa 0,0 l/m 0 min 0 min 0 W/m 6,3 km/h (2 Bft) 97,22 %
11.05.2017 03:24 8,4 C 7,2 C 5,0 C 77 % 0 lf 1001,6 hPa 0,0 l/m 0 min 0 min 0 W/m 4,2 km/h (1 Bft) 97,87 %
11.05.2017 03:26 8,4 C 7,2 C 5,0 C 77 % 0 lf 1001,5 hPa 0,0 l/m 0 min 0 min 0 W/m 4,2 km/h (1 Bft) 100,00 %
11.05.2017 03:28 8,4 C 7,2 C 5,0 C 77 % 0 lf 1001,5 hPa 0,0 l/m 0 min 0 min 0 W/m 4,2 km/h (1 Bft) 97,83 %
11.05.2017 03:30 8,4 C 7,2 C 5,0 C 77 % 0 lf 1001,5 hPa 0,0 l/m 0 min 0 min 0 W/m 2,1 km/h (1 Bft) 97,87 %
11.05.2017 03:32 8,4 C 7,2 C 5,0 C 77 % 0 lf 1001,5 hPa 0,0 l/m 0 min 0 min 3 W/m 4,2 km/h (1 Bft) 97,87 %
11.05.2017 03:34 8,3 C 7,2 C 5,0 C 77 % 0 lf 1001,5 hPa 0,0 l/m 0 min 0 min 4 W/m 6,3 km/h (2 Bft) 95,74 %
11.05.2017 03:36 8,3 C 7,2 C 5,0 C 77 % 0 lf 1001,5 hPa 0,0 l/m 0 min 0 min 0 W/m 6,3 km/h (2 Bft) 98,11 %
11.05.2017 03:38 8,3 C 7,2 C 5,0 C 77 % 0 lf 1001,5 hPa 0,0 l/m 0 min 0 min 0 W/m 6,3 km/h (2 Bft) 95,74 %
11.05.2017 03:40 8,3 C 7,2 C 5,0 C 78 % 0 lf 1001,5 hPa 0,0 l/m 0 min 0 min 0 W/m 4,2 km/h (1 Bft) 95,74 %
11.05.2017 03:42 8,2 C 6,7 C 5,0 C 78 % 0 lf 1001,4 hPa 0,0 l/m 0 min 0 min 0 W/m 6,3 km/h (2 Bft) 97,92 %
11.05.2017 03:44 8,2 C 6,7 C 4,4 C 78 % 0 lf 1001,4 hPa 0,0 l/m 0 min 0 min 0 W/m 4,2 km/h (1 Bft) 95,65 %
11.05.2017 03:46 8,2 C 6,7 C 4,4 C 78 % 0 lf 1001,5 hPa 0,0 l/m 0 min 0 min 0 W/m 6,3 km/h (2 Bft) 95,74 %
11.05.2017 03:48 8,1 C 6,7 C 4,4 C 78 % 0 lf 1001,4 hPa 0,0 l/m 0 min 0 min 0 W/m 4,2 km/h (1 Bft) 97,87 %
11.05.2017 03:50 8,1 C 6,7 C 4,4 C 78 % 0 lf 1001,3 hPa 0,0 l/m 0 min 0 min 0 W/m 4,2 km/h (1 Bft) 97,87 %
11.05.2017 03:52 8,1 C 6,7 C 4,4 C 78 % 0 lf 1001,3 hPa 0,0 l/m 0 min 0 min 0 W/m 4,2 km/h (1 Bft) 97,92 %
11.05.2017 03:54 8,1 C 6,7 C 4,4 C 78 % 0 lf 1001,4 hPa 0,0 l/m 0 min 0 min 0 W/m 2,1 km/h (1 Bft) 97,87 %
11.05.2017 03:56 8,0 C 6,7 C 4,4 C 78 % 0 lf 1001,3 hPa 0,0 l/m 0 min 0 min 0 W/m 4,2 km/h (1 Bft) 97,83 %
11.05.2017 03:58 8,0 C 6,7 C 4,4 C 78 % 0 lf 1001,3 hPa 0,0 l/m 0 min 0 min 0 W/m 4,2 km/h (1 Bft) 95,74 %
11.05.2017 04:00 7,9 C 6,1 C 4,4 C 78 % 0 lf 1001,2 hPa 0,0 l/m 0 min 0 min 0 W/m 4,2 km/h (1 Bft) 100,00 %
11.05.2017 04:02 7,9 C 6,1 C 4,4 C 79 % 0 lf 1001,2 hPa 0,0 l/m 0 min 0 min 0 W/m 2,1 km/h (1 Bft) 93,75 %
11.05.2017 04:04 7,9 C 6,1 C 4,4 C 79 % 0 lf 1001,2 hPa 0,0 l/m 0 min 0 min 0 W/m 6,3 km/h (2 Bft) 97,83 %
11.05.2017 04:06 7,8 C 6,1 C 4,4 C 79 % 0 lf 1001,1 hPa 0,0 l/m 0 min 0 min 0 W/m 4,2 km/h (1 Bft) 97,22 %
11.05.2017 04:08 7,8 C 6,1 C 4,4 C 79 % 0 lf 1001,0 hPa 0,0 l/m 0 min 0 min 0 W/m 2,1 km/h (1 Bft) 95,74 %
11.05.2017 04:10 7,8 C 6,1 C 4,4 C 79 % 0 lf 1001,0 hPa 0,0 l/m 0 min 0 min 0 W/m 2,1 km/h (1 Bft) 97,87 %
11.05.2017 04:12 7,7 C 6,1 C 3,9 C 79 % 0 lf 1001,0 hPa 0,0 l/m 0 min 0 min 0 W/m 2,1 km/h (1 Bft) 95,74 %
11.05.2017 04:14 7,7 C 6,1 C 3,9 C 79 % 0 lf 1000,8 hPa 0,0 l/m 0 min 0 min 0 W/m 0,0 km/h (0 Bft) 97,87 %
11.05.2017 04:16 7,7 C 6,1 C 3,9 C 80 % 0 lf 1000,9 hPa 0,0 l/m 0 min 0 min 0 W/m 0,0 km/h (0 Bft) 93,48 %
11.05.2017 04:18 7,7 C 5,6 C 3,9 C 80 % 0 lf 1000,9 hPa 0,0 l/m 0 min 0 min 0 W/m 0,0 km/h (0 Bft) 95,74 %
11.05.2017 04:20 7,6 C 5,6 C 3,9 C 80 % 0 lf 1001,0 hPa 0,0 l/m 0 min 0 min 0 W/m 0,0 km/h (0 Bft) 97,87 %
11.05.2017 04:22 7,6 C 5,6 C 3,9 C 80 % 0 lf 1000,9 hPa 0,0 l/m 0 min 0 min 0 W/m 0,0 km/h (0 Bft) 94,34 %
11.05.2017 04:24 7,6 C 5,6 C 3,9 C 80 % 0 lf 1000,9 hPa 0,0 l/m 0 min 0 min 0 W/m 0,0 km/h (0 Bft) 97,87 %
11.05.2017 04:26 7,5 C 5,6 C 3,9 C 80 % 0 lf 1000,9 hPa 0,0 l/m 0 min 0 min 0 W/m 0,0 km/h (0 Bft) 93,62 %
11.05.2017 04:28 7,4 C 5,6 C 3,9 C 80 % 0 lf 1000,9 hPa 0,0 l/m 0 min 0 min 0 W/m 0,0 km/h (0 Bft) 97,87 %
11.05.2017 04:30 7,4 C 5,6 C 3,9 C 80 % 0 lf 1000,8 hPa 0,0 l/m 0 min 0 min 0 W/m 2,1 km/h (1 Bft) 95,65 %
11.05.2017 04:32 7,4 C 5,6 C 3,9 C 80 % 0 lf 1000,9 hPa 0,0 l/m 0 min 0 min 0 W/m 6,3 km/h (2 Bft) 97,92 %
11.05.2017 04:34 7,4 C 5,6 C 3,9 C 80 % 0 lf 1000,8 hPa 0,0 l/m 0 min 0 min 0 W/m 4,2 km/h (1 Bft) 95,74 %
11.05.2017 04:36 7,3 C 5,6 C 3,9 C 80 % 0 lf 1000,8 hPa 0,0 l/m 0 min 0 min 0 W/m 6,3 km/h (2 Bft) 96,00 %
11.05.2017 04:38 7,3 C 5,6 C 3,9 C 80 % 0 lf 1000,7 hPa 0,0 l/m 0 min 0 min 0 W/m 2,1 km/h (1 Bft) 97,87 %
11.05.2017 04:40 7,3 C 5,6 C 3,9 C 80 % 0 lf 1000,7 hPa 0,0 l/m 0 min 0 min 0 W/m 4,2 km/h (1 Bft) 97,83 %
11.05.2017 04:42 7,2 C 5,6 C 3,9 C 80 % 0 lf 1000,7 hPa 0,0 l/m 0 min 0 min 1 W/m 4,2 km/h (1 Bft) 95,83 %
11.05.2017 04:44 7,2 C 5,6 C 3,9 C 80 % 0 lf 1000,6 hPa 0,0 l/m 0 min 0 min 2 W/m 4,2 km/h (1 Bft) 95,74 %
11.05.2017 04:46 7,2 C 5,6 C 3,9 C 80 % 0 lf 1000,6 hPa 0,0 l/m 0 min 0 min 3 W/m 2,1 km/h (1 Bft) 97,87 %
11.05.2017 04:48 7,2 C 5,6 C 3,9 C 81 % 0 lf 1000,6 hPa 0,0 l/m 0 min 0 min 1 W/m 4,2 km/h (1 Bft) 95,74 %
11.05.2017 04:50 7,1 C 5,6 C 3,9 C 81 % 0 lf 1000,5 hPa 0,0 l/m 0 min 0 min 0 W/m 4,2 km/h (1 Bft) 100,00 %
11.05.2017 04:52 7,1 C 5,6 C 3,9 C 81 % 0 lf 1000,5 hPa 0,0 l/m 0 min 0 min 0 W/m 4,2 km/h (1 Bft) 100,00 %
11.05.2017 04:54 7,0 C 5,6 C 3,9 C 81 % 0 lf 1000,4 hPa 0,0 l/m 0 min 0 min 0 W/m 4,2 km/h (1 Bft) 100,00 %
11.05.2017 04:56 7,0 C 5,6 C 3,9 C 81 % 0 lf 1000,4 hPa 0,0 l/m 0 min 0 min 0 W/m 4,2 km/h (1 Bft) 100,00 %
11.05.2017 04:58 7,0 C 5,6 C 3,9 C 81 % 0 lf 1000,4 hPa 0,0 l/m 0 min 0 min 0 W/m 4,2 km/h (1 Bft) 100,00 %
11.05.2017 05:00 6,9 C 5,6 C 3,9 C 81 % 0 lf 1000,4 hPa 0,0 l/m 0 min 0 min 0 W/m 4,2 km/h (1 Bft) 97,87 %
11.05.2017 05:02 6,9 C 5,6 C 3,9 C 82 % 0 lf 1000,4 hPa 0,0 l/m 0 min 0 min 0 W/m 2,1 km/h (1 Bft) 95,65 %
11.05.2017 05:04 6,9 C 5,6 C 3,9 C 82 % 0 lf 1000,3 hPa 0,0 l/m 0 min 0 min 0 W/m 2,1 km/h (1 Bft) 97,87 %
11.05.2017 05:06 6,8 C 5,6 C 3,3 C 82 % 0 lf 1000,3 hPa 0,0 l/m 0 min 0 min 5 W/m 2,1 km/h (1 Bft) 97,87 %
11.05.2017 05:08 6,8 C 5,6 C 3,3 C 82 % 0 lf 1000,3 hPa 0,0 l/m 0 min 0 min 0 W/m 0,0 km/h (0 Bft) 93,62 %
11.05.2017 05:10 6,8 C 5,6 C 3,3 C 82 % 0 lf 1000,3 hPa 0,0 l/m 0 min 0 min 1 W/m 0,0 km/h (0 Bft) 97,87 %
11.05.2017 05:12 6,8 C 5,0 C 3,3 C 82 % 0 lf 1000,2 hPa 0,0 l/m 0 min 0 min 0 W/m 0,0 km/h (0 Bft) 98,11 %
11.05.2017 05:14 6,7 C 5,0 C 3,3 C 82 % 0 lf 1000,2 hPa 0,0 l/m 0 min 0 min 0 W/m 2,1 km/h (1 Bft) 95,74 %
11.05.2017 05:16 6,7 C 5,0 C 3,3 C 82 % 0 lf 1000,1 hPa 0,0 l/m 0 min 0 min 1 W/m 0,0 km/h (0 Bft) 97,83 %
11.05.2017 05:18 6,7 C 5,0 C 3,3 C 82 % 0 lf 1000,1 hPa 0,0 l/m 0 min 0 min 0 W/m 0,0 km/h (0 Bft) 91,49 %
11.05.2017 05:20 6,6 C 5,0 C 3,3 C 82 % 0 lf 1000,1 hPa 0,0 l/m 0 min 0 min 0 W/m 2,1 km/h (1 Bft) 95,74 %
11.05.2017 05:22 6,6 C 5,0 C 3,3 C 82 % 0 lf 1000,0 hPa 0,0 l/m 0 min 0 min 0 W/m 0,0 km/h (0 Bft) 95,83 %
11.05.2017 05:24 6,6 C 5,0 C 3,3 C 82 % 0 lf 1000,0 hPa 0,0 l/m 0 min 0 min 0 W/m 2,1 km/h (1 Bft) 91,49 %
11.05.2017 05:26 6,6 C 4,4 C 3,3 C 82 % 0 lf 1000,0 hPa 0,0 l/m 0 min 0 min 0 W/m 0,0 km/h (0 Bft) 95,74 %
11.05.2017 05:28 6,5 C 4,4 C 3,3 C 82 % 0 lf 1000,0 hPa 0,0 l/m 0 min 0 min 0 W/m 0,0 km/h (0 Bft) 93,48 %
11.05.2017 05:30 6,5 C 4,4 C 3,3 C 82 % 0 lf 1000,0 hPa 0,0 l/m 0 min 0 min 0 W/m 0,0 km/h (0 Bft) 93,62 %
11.05.2017 05:32 6,4 C 4,4 C 3,3 C 82 % 0 lf 1000,0 hPa 0,0 l/m 0 min 0 min 0 W/m 0,0 km/h (0 Bft) 95,83 %
11.05.2017 05:34 6,4 C 4,4 C 3,3 C 82 % 0 lf 999,9 hPa 0,0 l/m 0 min 0 min 0 W/m 0,0 km/h (0 Bft) 89,36 %
11.05.2017 05:36 6,4 C 4,4 C 3,3 C 82 % 0 lf 1000,0 hPa 0,0 l/m 0 min 0 min 0 W/m 0,0 km/h (0 Bft) 96,00 %
11.05.2017 05:38 6,4 C 4,4 C 3,3 C 82 % 0 lf 999,9 hPa 0,0 l/m 0 min 0 min 0 W/m 0,0 km/h (0 Bft) 93,48 %
11.05.2017 05:40 6,4 C 4,4 C 3,3 C 82 % 0 lf 999,9 hPa 0,0 l/m 0 min 0 min 0 W/m 0,0 km/h (0 Bft) 95,74 %
11.05.2017 05:42 6,3 C 4,4 C 3,3 C 82 % 0 lf 999,9 hPa 0,0 l/m 0 min 0 min 0 W/m 0,0 km/h (0 Bft) 100,00 %
11.05.2017 05:44 6,3 C 4,4 C 3,3 C 83 % 0 lf 999,9 hPa 0,0 l/m 0 min 0 min 0 W/m 0,0 km/h (0 Bft) 95,74 %
11.05.2017 05:46 6,3 C 4,4 C 3,3 C 83 % 0 lf 999,9 hPa 0,0 l/m 0 min 0 min 0 W/m 0,0 km/h (0 Bft) 95,74 %
11.05.2017 05:48 6,2 C 4,4 C 3,3 C 83 % 0 lf 999,9 hPa 0,0 l/m 0 min 0 min 0 W/m 0,0 km/h (0 Bft) 93,48 %
11.05.2017 05:50 6,2 C 4,4 C 3,3 C 83 % 0 lf 999,8 hPa 0,0 l/m 0 min 0 min 0 W/m 0,0 km/h (0 Bft) 97,87 %
11.05.2017 05:52 6,2 C 4,4 C 3,3 C 83 % 0 lf 999,8 hPa 0,0 l/m 0 min 0 min 0 W/m 0,0 km/h (0 Bft) 95,74 %
11.05.2017 05:54 6,2 C 4,4 C 3,3 C 83 % 0 lf 999,8 hPa 0,0 l/m 0 min 0 min 3 W/m 0,0 km/h (0 Bft) 97,87 %
11.05.2017 05:56 6,2 C 4,4 C 3,3 C 83 % 0 lf 999,8 hPa 0,0 l/m 0 min 0 min 5 W/m 0,0 km/h (0 Bft) 100,00 %
11.05.2017 05:58 6,1 C 4,4 C 3,3 C 83 % 0 lf 999,8 hPa 0,0 l/m 0 min 0 min 5 W/m 0,0 km/h (0 Bft) 100,00 %
11.05.2017 06:00 6,1 C 4,4 C 3,3 C 83 % 0 lf 999,8 hPa 0,0 l/m 0 min 0 min 7 W/m 0,0 km/h (0 Bft) 100,00 %
11.05.2017 06:02 6,1 C 4,4 C 3,3 C 83 % 0 lf 999,8 hPa 0,0 l/m 0 min 0 min 7 W/m 0,0 km/h (0 Bft) 97,87 %
11.05.2017 06:04 6,1 C 4,4 C 3,3 C 83 % 0 lf 999,7 hPa 0,0 l/m 0 min 0 min 9 W/m 0,0 km/h (0 Bft) 97,87 %
11.05.2017 06:06 6,0 C 4,4 C 3,3 C 83 % 0 lf 999,7 hPa 0,0 l/m 0 min 0 min 9 W/m 2,1 km/h (1 Bft) 100,00 %
11.05.2017 06:08 6,0 C 4,4 C 3,3 C 83 % 0 lf 999,7 hPa 0,0 l/m 0 min 0 min 11 W/m 2,1 km/h (1 Bft) 100,00 %
11.05.2017 06:10 5,9 C 4,4 C 3,3 C 84 % 0 lf 999,8 hPa 0,0 l/m 0 min 0 min 11 W/m 2,1 km/h (1 Bft) 93,62 %
11.05.2017 06:12 5,9 C 4,4 C 3,3 C 83 % 0 lf 999,7 hPa 0,0 l/m 0 min 0 min 11 W/m 2,1 km/h (1 Bft) 97,83 %
11.05.2017 06:14 5,9 C 4,4 C 3,3 C 83 % 0 lf 999,7 hPa 0,0 l/m 0 min 0 min 12 W/m 2,1 km/h (1 Bft) 97,87 %
11.05.2017 06:16 5,9 C 5,0 C 3,3 C 84 % 0 lf 999,7 hPa 0,0 l/m 0 min 0 min 12 W/m 0,0 km/h (0 Bft) 97,87 %
11.05.2017 06:18 5,9 C 5,0 C 3,3 C 84 % 0 lf 999,7 hPa 0,0 l/m 0 min 0 min 13 W/m 0,0 km/h (0 Bft) 97,87 %
11.05.2017 06:20 5,8 C 5,6 C 3,3 C 84 % 0 lf 999,7 hPa 0,0 l/m 0 min 0 min 14 W/m 2,1 km/h (1 Bft) 97,87 %
11.05.2017 06:22 5,8 C 5,6 C 3,3 C 84 % 0 lf 999,7 hPa 0,0 l/m 0 min 0 min 16 W/m 0,0 km/h (0 Bft) 98,11 %
11.05.2017 06:24 5,8 C 5,6 C 3,3 C 84 % 0 lf 999,7 hPa 0,0 l/m 0 min 0 min 16 W/m 0,0 km/h (0 Bft) 91,49 %
11.05.2017 06:26 5,8 C 5,6 C 3,3 C 85 % 0 lf 999,6 hPa 0,0 l/m 0 min 0 min 31 W/m 0,0 km/h (0 Bft) 95,65 %
11.05.2017 06:28 5,8 C 5,6 C 3,3 C 84 % 0 lf 999,7 hPa 0,0 l/m 0 min 0 min 25 W/m 0,0 km/h (0 Bft) 97,87 %
11.05.2017 06:30 5,8 C 5,6 C 3,9 C 85 % 0 lf 999,7 hPa 0,0 l/m 0 min 0 min 19 W/m 2,1 km/h (1 Bft) 97,87 %
11.05.2017 06:32 5,8 C 5,6 C 3,9 C 85 % 0 lf 999,7 hPa 0,0 l/m 0 min 0 min 19 W/m 0,0 km/h (0 Bft) 97,92 %
11.05.2017 06:34 5,8 C 5,6 C 3,9 C 85 % 0 lf 999,7 hPa 0,0 l/m 0 min 0 min 20 W/m 0,0 km/h (0 Bft) 95,74 %
11.05.2017 06:36 5,7 C 5,6 C 3,9 C 85 % 0 lf 999,7 hPa 0,0 l/m 0 min 0 min 21 W/m 0,0 km/h (0 Bft) 96,00 %
11.05.2017 06:38 5,8 C 5,6 C 3,9 C 85 % 0 lf 999,7 hPa 0,0 l/m 0 min 0 min 22 W/m 0,0 km/h (0 Bft) 93,48 %
11.05.2017 06:40 5,7 C 5,6 C 3,9 C 86 % 0 lf 999,7 hPa 0,0 l/m 0 min 0 min 23 W/m 0,0 km/h (0 Bft) 95,74 %
11.05.2017 06:42 5,7 C 5,6 C 3,9 C 86 % 0 lf 999,6 hPa 0,0 l/m 0 min 0 min 24 W/m 0,0 km/h (0 Bft) 91,67 %
11.05.2017 06:44 5,7 C 5,6 C 3,9 C 86 % 0 lf 999,6 hPa 0,0 l/m 0 min 0 min 24 W/m 0,0 km/h (0 Bft) 93,62 %
11.05.2017 06:46 5,8 C 5,6 C 3,9 C 86 % 0 lf 999,6 hPa 0,0 l/m 0 min 0 min 25 W/m 2,1 km/h (1 Bft) 95,74 %
11.05.2017 06:48 5,7 C 5,6 C 3,9 C 86 % 0 lf 999,6 hPa 0,0 l/m 0 min 0 min 28 W/m 2,1 km/h (1 Bft) 95,65 %
11.05.2017 06:50 5,8 C 6,1 C 3,9 C 87 % 0 lf 999,6 hPa 0,0 l/m 0 min 0 min 30 W/m 2,1 km/h (1 Bft) 95,74 %
11.05.2017 06:52 5,8 C 6,1 C 3,9 C 87 % 0 lf 999,6 hPa 0,0 l/m 0 min 0 min 32 W/m 0,0 km/h (0 Bft) 95,74 %
11.05.2017 06:54 5,8 C 6,1 C 4,4 C 87 % 0 lf 999,6 hPa 0,0 l/m 0 min 0 min 33 W/m 0,0 km/h (0 Bft) 95,74 %
11.05.2017 06:56 5,8 C 6,1 C 3,9 C 87 % 0 lf 999,6 hPa 0,0 l/m 0 min 0 min 35 W/m 0,0 km/h (0 Bft) 95,74 %
11.05.2017 06:58 5,8 C 6,1 C 4,4 C 87 % 0 lf 999,6 hPa 0,0 l/m 0 min 0 min 36 W/m 0,0 km/h (0 Bft) 95,74 %
11.05.2017 07:00 5,8 C 6,1 C 4,4 C 87 % 0 lf 999,6 hPa 0,0 l/m 0 min 0 min 36 W/m 0,0 km/h (0 Bft) 91,30 %
11.05.2017 07:02 5,8 C 6,1 C 4,4 C 88 % 0 lf 999,6 hPa 0,0 l/m 0 min 0 min 38 W/m 0,0 km/h (0 Bft) 93,62 %
11.05.2017 07:04 5,8 C 6,7 C 4,4 C 88 % 0 lf 999,6 hPa 0,0 l/m 0 min 0 min 42 W/m 0,0 km/h (0 Bft) 95,74 %
11.05.2017 07:06 5,8 C 6,7 C 4,4 C 88 % 0 lf 999,6 hPa 0,0 l/m 0 min 0 min 45 W/m 0,0 km/h (0 Bft) 93,62 %
11.05.2017 07:08 5,9 C 6,7 C 4,4 C 88 % 0 lf 999,6 hPa 0,0 l/m 0 min 0 min 47 W/m 0,0 km/h (0 Bft) 91,49 %
11.05.2017 07:10 5,9 C 6,7 C 4,4 C 88 % 0 lf 999,6 hPa 0,0 l/m 0 min 0 min 49 W/m 0,0 km/h (0 Bft) 93,62 %
11.05.2017 07:12 5,9 C 7,2 C 4,4 C 88 % 0 lf 999,5 hPa 0,0 l/m 0 min 0 min 52 W/m 6,3 km/h (2 Bft) 97,14 %
11.05.2017 07:14 5,9 C 7,8 C 5,0 C 89 % 0 lf 999,5 hPa 0,0 l/m 0 min 0 min 51 W/m 4,2 km/h (1 Bft) 91,49 %
11.05.2017 07:16 5,9 C 7,8 C 5,0 C 89 % 0 lf 999,5 hPa 0,0 l/m 0 min 0 min 53 W/m 6,3 km/h (2 Bft) 91,49 %
11.05.2017 07:18 6,0 C 7,8 C 5,0 C 89 % 0 lf 999,5 hPa 0,0 l/m 0 min 0 min 50 W/m 6,3 km/h (2 Bft) 93,62 %
11.05.2017 07:20 6,1 C 8,3 C 5,0 C 89 % 0 lf 999,5 hPa 0,0 l/m 0 min 0 min 49 W/m 4,2 km/h (1 Bft) 93,62 %
11.05.2017 07:22 6,1 C 8,3 C 5,0 C 89 % 0 lf 999,5 hPa 0,0 l/m 0 min 0 min 50 W/m 8,4 km/h (2 Bft) 93,48 %
11.05.2017 07:24 6,1 C 8,3 C 5,0 C 89 % 0 lf 999,4 hPa 0,0 l/m 0 min 0 min 52 W/m 4,2 km/h (1 Bft) 93,62 %
11.05.2017 07:26 6,2 C 8,3 C 5,6 C 90 % 0 lf 999,4 hPa 0,0 l/m 0 min 0 min 49 W/m 6,3 km/h (2 Bft) 95,74 %
11.05.2017 07:28 6,2 C 8,9 C 5,6 C 90 % 0 lf 999,3 hPa 0,0 l/m 0 min 0 min 47 W/m 6,3 km/h (2 Bft) 95,74 %
11.05.2017 07:30 6,3 C 8,9 C 6,1 C 90 % 0 lf 999,4 hPa 0,0 l/m 0 min 0 min 50 W/m 8,4 km/h (2 Bft) 97,87 %
11.05.2017 07:32 6,4 C 8,9 C 6,1 C 90 % 0 lf 999,4 hPa 0,0 l/m 0 min 0 min 63 W/m 8,4 km/h (2 Bft) 95,74 %
11.05.2017 07:34 6,5 C 8,9 C 6,1 C 90 % 0 lf 999,4 hPa 0,0 l/m 0 min 0 min 75 W/m 8,4 km/h (2 Bft) 95,65 %
11.05.2017 07:36 6,6 C 9,4 C 6,1 C 90 % 0 lf 999,4 hPa 0,0 l/m 0 min 0 min 80 W/m 10,5 km/h (2 Bft) 98,11 %
11.05.2017 07:38 6,7 C 9,4 C 6,7 C 90 % 0 lf 999,5 hPa 0,0 l/m 0 min 0 min 83 W/m 10,5 km/h (2 Bft) 97,87 %
11.05.2017 07:40 6,8 C 9,4 C 7,2 C 90 % 0 lf 999,4 hPa 0,0 l/m 0 min 0 min 86 W/m 10,5 km/h (2 Bft) 100,00 %
11.05.2017 07:42 6,8 C 9,4 C 7,2 C 90 % 0 lf 999,4 hPa 0,0 l/m 0 min 0 min 87 W/m 14,6 km/h (3 Bft) 100,00 %
11.05.2017 07:44 6,9 C 10,0 C 7,2 C 90 % 0 lf 999,3 hPa 0,0 l/m 0 min 0 min 87 W/m 18,8 km/h (3 Bft) 95,74 %
11.05.2017 07:46 7,0 C 10,0 C 7,2 C 90 % 0 lf 999,3 hPa 0,0 l/m 0 min 0 min 95 W/m 14,6 km/h (3 Bft) 100,00 %
11.05.2017 07:48 7,1 C 10,0 C 7,8 C 90 % 0 lf 999,3 hPa 0,0 l/m 0 min 0 min 97 W/m 16,7 km/h (3 Bft) 100,00 %
11.05.2017 07:50 7,3 C 10,6 C 7,8 C 90 % 0 lf 999,3 hPa 0,0 l/m 0 min 0 min 99 W/m 14,6 km/h (3 Bft) 100,00 %
11.05.2017 07:52 7,4 C 10,6 C 7,8 C 89 % 0 lf 999,3 hPa 0,0 l/m 0 min 0 min 102 W/m 14,6 km/h (3 Bft) 97,87 %
11.05.2017 07:54 7,6 C 10,6 C 8,3 C 89 % 0 lf 999,3 hPa 0,0 l/m 0 min 0 min 104 W/m 16,7 km/h (3 Bft) 97,87 %
11.05.2017 07:56 7,8 C 11,1 C 8,3 C 89 % 0 lf 999,3 hPa 0,0 l/m 0 min 0 min 106 W/m 16,7 km/h (3 Bft) 100,00 %
11.05.2017 07:58 7,9 C 11,1 C 8,3 C 88 % 0 lf 999,2 hPa 0,0 l/m 0 min 0 min 111 W/m 10,5 km/h (2 Bft) 100,00 %
11.05.2017 08:00 8,1 C 11,1 C 8,3 C 87 % 0 lf 999,3 hPa 0,0 l/m 0 min 0 min 114 W/m 12,6 km/h (3 Bft) 97,83 %
11.05.2017 08:02 8,2 C 11,1 C 8,9 C 86 % 0 lf 999,2 hPa 0,0 l/m 0 min 0 min 117 W/m 16,7 km/h (3 Bft) 97,87 %
11.05.2017 08:04 8,4 C 11,7 C 8,9 C 85 % 0 lf 999,2 hPa 0,0 l/m 0 min 0 min 118 W/m 18,8 km/h (3 Bft) 100,00 %
11.05.2017 08:06 8,6 C 11,7 C 8,9 C 85 % 0 lf 999,2 hPa 0,0 l/m 0 min 0 min 112 W/m 16,7 km/h (3 Bft) 100,00 %
11.05.2017 08:08 8,7 C 11,7 C 8,9 C 84 % 0 lf 999,2 hPa 0,0 l/m 0 min 0 min 111 W/m 23,0 km/h (4 Bft) 97,87 %
11.05.2017 08:10 8,9 C 11,7 C 9,4 C 83 % 0 lf 999,3 hPa 0,0 l/m 0 min 0 min 117 W/m 18,8 km/h (3 Bft) 97,87 %
11.05.2017 08:12 9,1 C 11,7 C 9,4 C 82 % 0 lf 999,2 hPa 0,0 l/m 0 min 0 min 119 W/m 20,9 km/h (4 Bft) 97,87 %
11.05.2017 08:14 9,2 C 11,7 C 9,4 C 82 % 0 lf 999,1 hPa 0,0 l/m 0 min 0 min 125 W/m 20,9 km/h (4 Bft) 97,87 %
11.05.2017 08:16 9,4 C 12,2 C 9,4 C 81 % 0 lf 999,1 hPa 0,0 l/m 0 min 0 min 134 W/m 12,6 km/h (3 Bft) 97,87 %
11.05.2017 08:18 9,6 C 12,2 C 9,4 C 80 % 0 lf 999,1 hPa 0,0 l/m 0 min 0 min 141 W/m 16,7 km/h (3 Bft) 95,74 %
11.05.2017 08:20 9,7 C 12,2 C 9,4 C 80 % 0 lf 999,1 hPa 0,0 l/m 0 min 0 min 142 W/m 23,0 km/h (4 Bft) 97,87 %
11.05.2017 08:22 9,9 C 12,2 C 10,0 C 79 % 0 lf 999,0 hPa 0,0 l/m 0 min 0 min 146 W/m 14,6 km/h (3 Bft) 97,83 %
11.05.2017 08:24 10,1 C 12,8 C 10,0 C 78 % 0 lf 999,1 hPa 0,0 l/m 0 min 0 min 150 W/m 10,5 km/h (2 Bft) 93,62 %
11.05.2017 08:26 10,2 C 12,8 C 10,0 C 78 % 0 lf 999,0 hPa 0,0 l/m 0 min 0 min 154 W/m 14,6 km/h (3 Bft) 93,62 %
11.05.2017 08:28 10,4 C 14,4 C 10,0 C 78 % 0 lf 999,0 hPa 0,0 l/m 0 min 0 min 157 W/m 20,9 km/h (4 Bft) 97,87 %
11.05.2017 08:30 10,6 C 17,2 C 10,0 C 77 % 0 lf 999,0 hPa 0,0 l/m 0 min 0 min 161 W/m 16,7 km/h (3 Bft) 97,87 %
11.05.2017 08:32 10,7 C 18,3 C 10,6 C 77 % 0 lf 999,0 hPa 0,0 l/m 0 min 0 min 163 W/m 20,9 km/h (4 Bft) 97,14 %
11.05.2017 08:34 10,9 C 19,4 C 10,6 C 76 % 0 lf 999,0 hPa 0,0 l/m 0 min 0 min 167 W/m 16,7 km/h (3 Bft) 97,87 %
11.05.2017 08:36 11,1 C 18,9 C 10,6 C 76 % 0 lf 999,0 hPa 0,0 l/m 0 min 0 min 170 W/m 20,9 km/h (4 Bft) 97,87 %
11.05.2017 08:38 11,3 C 19,4 C 10,6 C 74 % 0 lf 999,0 hPa 0,0 l/m 0 min 0 min 174 W/m 23,0 km/h (4 Bft) 97,87 %
11.05.2017 08:40 11,6 C 21,1 C 11,1 C 74 % 0 lf 999,0 hPa 0,0 l/m 0 min 0 min 178 W/m 20,9 km/h (4 Bft) 97,87 %
11.05.2017 08:42 11,7 C 21,1 C 11,1 C 73 % 0 lf 999,0 hPa 0,0 l/m 0 min 0 min 181 W/m 18,8 km/h (3 Bft) 97,87 %
11.05.2017 08:44 11,9 C 21,1 C 11,1 C 73 % 0 lf 999,0 hPa 0,0 l/m 0 min 0 min 184 W/m 16,7 km/h (3 Bft) 97,83 %
11.05.2017 08:46 12,1 C 22,2 C 11,1 C 73 % 0 lf 999,1 hPa 0,0 l/m 0 min 0 min 190 W/m 12,6 km/h (3 Bft) 97,87 %
11.05.2017 08:48 12,2 C 22,8 C 11,7 C 72 % 0 lf 999,1 hPa 0,0 l/m 0 min 0 min 193 W/m 12,6 km/h (3 Bft) 95,74 %
11.05.2017 08:50 12,4 C 21,7 C 11,7 C 72 % 0 lf 999,1 hPa 0,0 l/m 0 min 0 min 195 W/m 20,9 km/h (4 Bft) 97,87 %
11.05.2017 08:52 12,7 C 20,0 C 11,7 C 70 % 0 lf 999,2 hPa 0,0 l/m 0 min 0 min 199 W/m 20,9 km/h (4 Bft) 97,87 %
11.05.2017 08:54 12,9 C 20,0 C 12,2 C 69 % 0 lf 999,1 hPa 0,0 l/m 0 min 0 min 207 W/m 18,8 km/h (3 Bft) 97,87 %
11.05.2017 08:56 13,1 C 20,0 C 12,2 C 68 % 0 lf 999,1 hPa 0,0 l/m 0 min 0 min 200 W/m 23,0 km/h (4 Bft) 100,00 %
11.05.2017 08:58 13,3 C 20,0 C 12,2 C 68 % 0 lf 999,1 hPa 0,0 l/m 0 min 0 min 189 W/m 29,3 km/h (5 Bft) 95,74 %
11.05.2017 09:00 13,5 C 21,1 C 12,2 C 67 % 0 lf 999,0 hPa 0,0 l/m 0 min 0 min 212 W/m 16,7 km/h (3 Bft) 100,00 %
11.05.2017 09:02 13,7 C 22,2 C 12,8 C 67 % 0 lf 999,0 hPa 0,0 l/m 2 min 0 min 234 W/m 14,6 km/h (3 Bft) 97,87 %
11.05.2017 09:04 13,8 C 23,3 C 12,8 C 67 % 0 lf 999,0 hPa 0,0 l/m 2 min 0 min 242 W/m 12,6 km/h (3 Bft) 100,00 %
11.05.2017 09:06 14,1 C 22,2 C 13,3 C 66 % 0 lf 999,0 hPa 0,0 l/m 2 min 0 min 253 W/m 16,7 km/h (3 Bft) 98,18 %
11.05.2017 09:08 14,2 C 22,2 C 13,3 C 66 % 0 lf 998,9 hPa 0,0 l/m 2 min 0 min 262 W/m 12,6 km/h (3 Bft) 97,87 %
11.05.2017 09:10 14,3 C 22,2 C 13,9 C 65 % 0 lf 998,9 hPa 0,0 l/m 2 min 0 min 270 W/m 12,6 km/h (3 Bft) 95,65 %
11.05.2017 09:12 14,6 C 20,6 C 13,9 C 65 % 0 lf 998,9 hPa 0,0 l/m 2 min 0 min 282 W/m 18,8 km/h (3 Bft) 95,83 %
11.05.2017 09:14 14,7 C 21,1 C 14,4 C 64 % 0 lf 999,0 hPa 0,0 l/m 2 min 0 min 262 W/m 14,6 km/h (3 Bft) 93,62 %
11.05.2017 09:16 14,9 C 18,9 C 14,4 C 64 % 0 lf 998,9 hPa 0,0 l/m 0 min 0 min 173 W/m 16,7 km/h (3 Bft) 93,62 %
11.05.2017 09:18 15,0 C 18,3 C 14,4 C 63 % 0 lf 999,0 hPa 0,0 l/m 0 min 0 min 137 W/m 20,9 km/h (4 Bft) 95,74 %
11.05.2017 09:20 15,1 C 18,9 C 14,4 C 63 % 0 lf 998,9 hPa 0,0 l/m 0 min 0 min 172 W/m 16,7 km/h (3 Bft) 95,74 %
11.05.2017 09:22 15,1 C 18,9 C 14,4 C 63 % 0 lf 998,9 hPa 0,0 l/m 0 min 0 min 201 W/m 18,8 km/h (3 Bft) 95,65 %
11.05.2017 09:24 15,2 C 20,6 C 15,0 C 63 % 0 lf 998,9 hPa 0,0 l/m 0 min 0 min 222 W/m 18,8 km/h (3 Bft) 95,74 %
11.05.2017 09:26 15,2 C 21,1 C 15,0 C 64 % 0 lf 998,9 hPa 0,0 l/m 0 min 0 min 233 W/m 12,6 km/h (3 Bft) 95,74 %
11.05.2017 09:28 15,3 C 19,4 C 15,6 C 63 % 0 lf 999,0 hPa 0,0 l/m 0 min 0 min 199 W/m 18,8 km/h (3 Bft) 95,74 %
11.05.2017 09:30 15,4 C 18,3 C 15,6 C 63 % 0 lf 998,9 hPa 0,0 l/m 0 min 0 min 185 W/m 23,0 km/h (4 Bft) 95,74 %
11.05.2017 09:32 15,4 C 17,8 C 16,1 C 62 % 0 lf 998,9 hPa 0,0 l/m 0 min 0 min 184 W/m 23,0 km/h (4 Bft) 93,62 %
11.05.2017 09:34 15,4 C 18,9 C 16,7 C 63 % 0 lf 998,9 hPa 0,0 l/m 0 min 0 min 210 W/m 18,8 km/h (3 Bft) 91,49 %
11.05.2017 09:36 15,5 C 20,6 C 17,2 C 63 % 0 lf 998,8 hPa 0,0 l/m 0 min 0 min 238 W/m 16,7 km/h (3 Bft) 97,30 %
11.05.2017 09:38 15,6 C 20,0 C 17,2 C 63 % 0 lf 998,9 hPa 0,0 l/m 0 min 0 min 222 W/m 18,8 km/h (3 Bft) 95,74 %
11.05.2017 09:40 15,6 C 18,9 C 17,2 C 63 % 0 lf 998,9 hPa 0,0 l/m 0 min 0 min 194 W/m 18,8 km/h (3 Bft) 95,74 %
11.05.2017 09:42 15,6 C 18,3 C 16,7 C 62 % 0 lf 999,0 hPa 0,0 l/m 0 min 0 min 151 W/m 16,7 km/h (3 Bft) 93,48 %
11.05.2017 09:44 15,7 C 17,8 C 16,7 C 62 % 0 lf 999,0 hPa 0,0 l/m 0 min 0 min 159 W/m 14,6 km/h (3 Bft) 95,74 %
11.05.2017 09:46 15,7 C 18,9 C 16,7 C 63 % 0 lf 999,0 hPa 0,0 l/m 0 min 0 min 172 W/m 18,8 km/h (3 Bft) 95,74 %
11.05.2017 09:48 15,7 C 18,3 C 16,7 C 62 % 0 lf 999,0 hPa 0,0 l/m 0 min 0 min 150 W/m 18,8 km/h (3 Bft) 95,74 %
11.05.2017 09:50 15,7 C 17,8 C 16,7 C 62 % 0 lf 999,0 hPa 0,0 l/m 0 min 0 min 160 W/m 10,5 km/h (2 Bft) 95,74 %
11.05.2017 09:52 15,7 C 18,3 C 17,2 C 62 % 0 lf 998,9 hPa 0,0 l/m 0 min 0 min 173 W/m 14,6 km/h (3 Bft) 95,74 %
11.05.2017 09:54 15,7 C 18,9 C 17,2 C 63 % 0 lf 998,9 hPa 0,0 l/m 0 min 0 min 209 W/m 20,9 km/h (4 Bft) 97,83 %
11.05.2017 09:56 15,7 C 18,9 C 17,8 C 63 % 0 lf 998,9 hPa 0,0 l/m 0 min 0 min 182 W/m 16,7 km/h (3 Bft) 97,87 %
11.05.2017 09:58 15,8 C 20,0 C 18,3 C 63 % 0 lf 999,0 hPa 0,0 l/m 0 min 0 min 285 W/m 16,7 km/h (3 Bft) 97,87 %
11.05.2017 10:00 15,8 C 19,4 C 18,3 C 62 % 0 lf 999,0 hPa 0,0 l/m 0 min 0 min 214 W/m 10,5 km/h (2 Bft) 97,87 %
11.05.2017 10:02 15,8 C 19,4 C 18,9 C 62 % 0 lf 999,0 hPa 0,0 l/m 0 min 0 min 212 W/m 12,6 km/h (3 Bft) 95,74 %
11.05.2017 10:04 15,9 C 21,1 C 20,0 C 63 % 0 lf 998,8 hPa 0,0 l/m 0 min 0 min 288 W/m 12,6 km/h (3 Bft) 95,74 %
11.05.2017 10:06 16,0 C 21,1 C 21,1 C 63 % 0 lf 998,9 hPa 0,0 l/m 2 min 0 min 315 W/m 12,6 km/h (3 Bft) 96,23 %
11.05.2017 10:08 16,1 C 22,2 C 22,8 C 63 % 0 lf 998,9 hPa 0,0 l/m 2 min 0 min 336 W/m 10,5 km/h (2 Bft) 100,00 %
11.05.2017 10:10 16,2 C 20,6 C 21,1 C 63 % 0 lf 998,9 hPa 0,0 l/m 0 min 0 min 233 W/m 18,8 km/h (3 Bft) 95,74 %
11.05.2017 10:12 16,2 C 18,9 C 20,0 C 62 % 0 lf 998,9 hPa 0,0 l/m 0 min 0 min 148 W/m 16,7 km/h (3 Bft) 97,87 %
11.05.2017 10:14 16,2 C 18,9 C 19,4 C 62 % 0 lf 998,9 hPa 0,0 l/m 0 min 0 min 181 W/m 18,8 km/h (3 Bft) 95,74 %
11.05.2017 10:16 16,3 C 20,0 C 19,4 C 62 % 0 lf 998,9 hPa 0,0 l/m 0 min 0 min 219 W/m 12,6 km/h (3 Bft) 97,87 %
11.05.2017 10:18 16,3 C 20,0 C 19,4 C 62 % 0 lf 998,8 hPa 0,0 l/m 0 min 0 min 235 W/m 14,6 km/h (3 Bft) 100,00 %
11.05.2017 10:20 16,3 C 19,4 C 19,4 C 62 % 0 lf 998,9 hPa 0,0 l/m 0 min 0 min 182 W/m 16,7 km/h (3 Bft) 95,65 %
11.05.2017 10:22 16,4 C 21,1 C 19,4 C 63 % 0 lf 998,8 hPa 0,0 l/m 0 min 0 min 240 W/m 14,6 km/h (3 Bft) 96,00 %
11.05.2017 10:24 16,4 C 22,8 C 21,1 C 63 % 0 lf 998,7 hPa 0,0 l/m 0 min 0 min 295 W/m 20,9 km/h (4 Bft) 95,74 %
11.05.2017 10:26 16,5 C 23,3 C 21,7 C 62 % 0 lf 998,7 hPa 0,0 l/m 2 min 0 min 377 W/m 20,9 km/h (4 Bft) 97,87 %
11.05.2017 10:28 16,6 C 24,4 C 22,8 C 62 % 0 lf 998,7 hPa 0,0 l/m 2 min 0 min 379 W/m 18,8 km/h (3 Bft) 97,87 %
11.05.2017 10:30 16,8 C 26,1 C 23,9 C 62 % 0 lf 998,7 hPa 0,0 l/m 2 min 0 min 416 W/m 23,0 km/h (4 Bft) 95,74 %
11.05.2017 10:32 17,0 C 28,3 C 24,4 C 64 % 0 lf 998,7 hPa 0,0 l/m 2 min 0 min 429 W/m 20,9 km/h (4 Bft) 95,74 %
11.05.2017 10:34 17,2 C 28,9 C 25,0 C 63 % 0 lf 998,7 hPa 0,0 l/m 2 min 0 min 416 W/m 20,9 km/h (4 Bft) 95,74 %
11.05.2017 10:36 17,3 C 27,8 C 25,6 C 62 % 0 lf 998,6 hPa 0,0 l/m 2 min 0 min 381 W/m 23,0 km/h (4 Bft) 94,59 %
11.05.2017 10:38 17,6 C 26,1 C 25,0 C 61 % 0 lf 998,7 hPa 0,0 l/m 2 min 0 min 429 W/m 20,9 km/h (4 Bft) 97,87 %
11.05.2017 10:40 17,7 C 27,2 C 25,0 C 60 % 0 lf 998,7 hPa 0,0 l/m 2 min 0 min 441 W/m 20,9 km/h (4 Bft) 97,83 %
11.05.2017 10:42 17,9 C 26,7 C 25,0 C 60 % 0 lf 998,7 hPa 0,0 l/m 2 min 0 min 427 W/m 25,1 km/h (4 Bft) 95,74 %
11.05.2017 10:44 18,0 C 26,7 C 24,4 C 60 % 0 lf 998,6 hPa 0,0 l/m 2 min 0 min 424 W/m 18,8 km/h (3 Bft) 93,62 %
11.05.2017 10:46 18,1 C 25,6 C 25,0 C 59 % 0 lf 998,6 hPa 0,0 l/m 2 min 0 min 389 W/m 20,9 km/h (4 Bft) 97,87 %
11.05.2017 10:48 18,2 C 23,3 C 24,4 C 59 % 0 lf 998,6 hPa 0,0 l/m 2 min 0 min 577 W/m 18,8 km/h (3 Bft) 97,87 %
11.05.2017 10:50 18,3 C 25,6 C 25,0 C 60 % 0 lf 998,6 hPa 0,0 l/m 2 min 0 min 938 W/m 16,7 km/h (3 Bft) 95,74 %
11.05.2017 10:52 18,4 C 23,9 C 26,1 C 59 % 0 lf 998,6 hPa 0,0 l/m 2 min 0 min 902 W/m 18,8 km/h (3 Bft) 95,65 %
11.05.2017 10:54 18,4 C 23,3 C 26,1 C 58 % 0 lf 998,6 hPa 0,0 l/m 2 min 0 min 893 W/m 20,9 km/h (4 Bft) 97,87 %
11.05.2017 10:56 18,5 C 23,3 C 23,9 C 59 % 0 lf 998,5 hPa 0,0 l/m 2 min 0 min 864 W/m 16,7 km/h (3 Bft) 93,62 %
11.05.2017 10:58 18,5 C 23,3 C 23,3 C 59 % 0 lf 998,6 hPa 0,0 l/m 0 min 0 min 232 W/m 18,8 km/h (3 Bft) 95,74 %
11.05.2017 11:00 18,5 C 22,2 C 22,2 C 58 % 0 lf 998,6 hPa 0,0 l/m 0 min 0 min 234 W/m 16,7 km/h (3 Bft) 95,74 %
11.05.2017 11:02 18,5 C 21,1 C 21,7 C 58 % 0 lf 998,6 hPa 0,0 l/m 0 min 0 min 214 W/m 14,6 km/h (3 Bft) 93,62 %
11.05.2017 11:04 18,5 C 21,1 C 21,1 C 58 % 0 lf 998,5 hPa 0,0 l/m 0 min 0 min 231 W/m 18,8 km/h (3 Bft) 97,83 %
11.05.2017 11:06 18,5 C 21,1 C 21,1 C 59 % 0 lf 998,5 hPa 0,0 l/m 0 min 0 min 227 W/m 16,7 km/h (3 Bft) 96,36 %
11.05.2017 11:08 18,4 C 21,1 C 20,6 C 59 % 0 lf 998,5 hPa 0,0 l/m 0 min 0 min 224 W/m 18,8 km/h (3 Bft) 95,65 %
11.05.2017 11:10 18,4 C 22,8 C 21,1 C 60 % 0 lf 998,5 hPa 0,0 l/m 0 min 0 min 264 W/m 12,6 km/h (3 Bft) 97,87 %
11.05.2017 11:12 18,5 C 23,9 C 21,7 C 61 % 0 lf 998,5 hPa 0,0 l/m 0 min 0 min 354 W/m 14,6 km/h (3 Bft) 93,75 %
11.05.2017 11:14 18,5 C 23,9 C 21,7 C 61 % 0 lf 998,5 hPa 0,0 l/m 2 min 0 min 372 W/m 16,7 km/h (3 Bft) 97,87 %
11.05.2017 11:16 18,6 C 23,3 C 21,7 C 60 % 0 lf 998,5 hPa 0,0 l/m 0 min 0 min 327 W/m 14,6 km/h (3 Bft) 93,62 %
11.05.2017 11:18 18,6 C 22,8 C 21,7 C 60 % 0 lf 998,5 hPa 0,0 l/m 0 min 0 min 305 W/m 18,8 km/h (3 Bft) 95,74 %
11.05.2017 11:20 18,7 C 25,0 C 22,2 C 60 % 0 lf 998,5 hPa 0,0 l/m 2 min 0 min 370 W/m 18,8 km/h (3 Bft) 95,65 %
11.05.2017 11:22 18,7 C 24,4 C 22,8 C 59 % 0 lf 998,5 hPa 0,0 l/m 0 min 0 min 338 W/m 18,8 km/h (3 Bft) 97,87 %
11.05.2017 11:24 18,8 C 23,9 C 22,8 C 60 % 0 lf 998,5 hPa 0,0 l/m 0 min 0 min 258 W/m 18,8 km/h (3 Bft) 95,74 %
11.05.2017 11:26 18,8 C 22,8 C 22,2 C 60 % 0 lf 998,5 hPa 0,0 l/m 0 min 0 min 283 W/m 20,9 km/h (4 Bft) 95,74 %
11.05.2017 11:28 18,8 C 20,6 C 21,1 C 58 % 0 lf 998,5 hPa 0,0 l/m 0 min 0 min 213 W/m 18,8 km/h (3 Bft) 95,74 %
11.05.2017 11:30 18,7 C 20,6 C 21,1 C 59 % 0 lf 998,5 hPa 0,0 l/m 0 min 0 min 236 W/m 16,7 km/h (3 Bft) 95,74 %
11.05.2017 11:32 18,7 C 22,8 C 21,7 C 60 % 0 lf 998,5 hPa 0,0 l/m 2 min 0 min 599 W/m 14,6 km/h (3 Bft) 95,74 %
11.05.2017 11:34 18,7 C 25,0 C 22,8 C 61 % 0 lf 998,5 hPa 0,0 l/m 2 min 0 min 647 W/m 16,7 km/h (3 Bft) 93,62 %
11.05.2017 11:36 18,8 C 23,9 C 23,9 C 60 % 0 lf 998,5 hPa 0,0 l/m 2 min 0 min 647 W/m 20,9 km/h (4 Bft) 94,74 %
11.05.2017 11:38 18,9 C 23,9 C 23,9 C 61 % 0 lf 998,4 hPa 0,0 l/m 2 min 0 min 452 W/m 16,7 km/h (3 Bft) 95,74 %
11.05.2017 11:40 18,9 C 22,2 C 23,3 C 59 % 0 lf 998,4 hPa 0,0 l/m 0 min 0 min 292 W/m 18,8 km/h (3 Bft) 93,48 %
11.05.2017 11:42 18,9 C 22,8 C 23,3 C 60 % 0 lf 998,4 hPa 0,0 l/m 0 min 0 min 293 W/m 20,9 km/h (4 Bft) 97,87 %
11.05.2017 11:44 18,9 C 22,2 C 22,8 C 60 % 0 lf 998,4 hPa 0,0 l/m 0 min 0 min 269 W/m 20,9 km/h (4 Bft) 95,74 %
11.05.2017 11:46 18,9 C 22,2 C 22,2 C 60 % 0 lf 998,4 hPa 0,0 l/m 0 min 0 min 250 W/m 20,9 km/h (4 Bft) 97,87 %
11.05.2017 11:48 18,9 C 22,2 C 22,2 C 60 % 0 lf 998,4 hPa 0,0 l/m 0 min 0 min 242 W/m 12,6 km/h (3 Bft) 89,36 %
11.05.2017 11:50 18,9 C 21,1 C 21,7 C 59 % 0 lf 998,4 hPa 0,0 l/m 0 min 0 min 218 W/m 16,7 km/h (3 Bft) 96,55 %
11.05.2017 11:52 18,9 C 21,1 C 21,7 C 60 % 0 lf 998,4 hPa 0,0 l/m 0 min 0 min 211 W/m 16,7 km/h (3 Bft) 97,14 %
11.05.2017 11:54 18,9 C 21,7 C 21,1 C 60 % 0 lf 998,4 hPa 0,0 l/m 0 min 0 min 209 W/m 16,7 km/h (3 Bft) 93,62 %
11.05.2017 11:56 18,9 C 21,1 C 21,1 C 60 % 0 lf 998,3 hPa 0,0 l/m 0 min 0 min 214 W/m 20,9 km/h (4 Bft) 95,74 %
11.05.2017 11:58 18,9 C 21,1 C 21,1 C 61 % 0 lf 998,3 hPa 0,0 l/m 0 min 0 min 222 W/m 14,6 km/h (3 Bft) 97,87 %
11.05.2017 12:00 18,9 C 21,1 C 21,1 C 60 % 0 lf 998,3 hPa 0,0 l/m 0 min 0 min 210 W/m 18,8 km/h (3 Bft) 97,87 %
11.05.2017 12:02 18,8 C 20,0 C 21,1 C 60 % 0 lf 998,3 hPa 0,0 l/m 0 min 0 min 191 W/m 18,8 km/h (3 Bft) 97,87 %
11.05.2017 12:04 18,8 C 20,0 C 21,1 C 60 % 0 lf 998,3 hPa 0,0 l/m 0 min 0 min 181 W/m 20,9 km/h (4 Bft) 100,00 %
11.05.2017 12:06 18,8 C 20,6 C 20,6 C 61 % 0 lf 998,2 hPa 0,0 l/m 0 min 0 min 166 W/m 10,5 km/h (2 Bft) 100,00 %
11.05.2017 12:08 18,7 C 19,4 C 20,6 C 61 % 0 lf 998,4 hPa 0,0 l/m 0 min 0 min 158 W/m 23,0 km/h (4 Bft) 100,00 %
11.05.2017 12:10 18,7 C 20,0 C 20,0 C 61 % 0 lf 998,3 hPa 0,0 l/m 0 min 0 min 155 W/m 18,8 km/h (3 Bft) 100,00 %
11.05.2017 12:12 18,6 C 20,0 C 20,0 C 61 % 0 lf 998,3 hPa 0,0 l/m 0 min 0 min 155 W/m 14,6 km/h (3 Bft) 100,00 %
11.05.2017 12:14 18,6 C 19,4 C 20,0 C 61 % 0 lf 998,2 hPa 0,0 l/m 0 min 0 min 150 W/m 20,9 km/h (4 Bft) 100,00 %
11.05.2017 12:16 18,5 C 18,9 C 19,4 C 61 % 0 lf 998,2 hPa 0,0 l/m 0 min 0 min 146 W/m 18,8 km/h (3 Bft) 97,87 %
11.05.2017 12:18 18,4 C 18,9 C 19,4 C 61 % 0 lf 998,2 hPa 0,0 l/m 0 min 0 min 142 W/m 20,9 km/h (4 Bft) 100,00 %
11.05.2017 12:20 18,4 C 19,4 C 18,9 C 61 % 0 lf 998,2 hPa 0,0 l/m 0 min 0 min 141 W/m 14,6 km/h (3 Bft) 100,00 %
11.05.2017 12:22 18,3 C 19,4 C 18,9 C 62 % 0 lf 998,2 hPa 0,0 l/m 0 min 0 min 141 W/m 16,7 km/h (3 Bft) 97,87 %
11.05.2017 12:24 18,3 C 19,4 C 18,9 C 62 % 0 lf 998,1 hPa 0,0 l/m 0 min 0 min 146 W/m 12,6 km/h (3 Bft) 97,87 %
11.05.2017 12:26 18,2 C 19,4 C 18,9 C 62 % 0 lf 998,1 hPa 0,0 l/m 0 min 0 min 154 W/m 16,7 km/h (3 Bft) 100,00 %
11.05.2017 12:28 18,2 C 19,4 C 18,9 C 62 % 0 lf 998,1 hPa 0,0 l/m 0 min 0 min 162 W/m 18,8 km/h (3 Bft) 100,00 %
11.05.2017 12:30 18,2 C 20,0 C 19,4 C 62 % 0 lf 998,1 hPa 0,0 l/m 0 min 0 min 174 W/m 18,8 km/h (3 Bft) 100,00 %
11.05.2017 12:32 18,2 C 21,1 C 20,0 C 63 % 0 lf 998,0 hPa 0,0 l/m 0 min 0 min 190 W/m 14,6 km/h (3 Bft) 100,00 %
11.05.2017 12:34 18,3 C 21,7 C 20,0 C 64 % 0 lf 998,1 hPa 0,0 l/m 0 min 0 min 211 W/m 14,6 km/h (3 Bft) 95,74 %
11.05.2017 12:36 18,3 C 21,1 C 20,6 C 64 % 0 lf 998,0 hPa 0,0 l/m 0 min 0 min 242 W/m 14,6 km/h (3 Bft) 98,00 %
11.05.2017 12:38 18,3 C 22,2 C 20,6 C 64 % 0 lf 998,0 hPa 0,0 l/m 0 min 0 min 264 W/m 23,0 km/h (4 Bft) 97,87 %
11.05.2017 12:40 18,4 C 23,3 C 21,7 C 65 % 0 lf 998,0 hPa 0,0 l/m 0 min 0 min 280 W/m 18,8 km/h (3 Bft) 95,74 %
11.05.2017 12:42 18,6 C 23,3 C 22,2 C 64 % 0 lf 998,0 hPa 0,0 l/m 0 min 0 min 287 W/m 20,9 km/h (4 Bft) 95,65 %
11.05.2017 12:44 18,7 C 25,0 C 22,2 C 64 % 0 lf 997,9 hPa 0,0 l/m 0 min 0 min 349 W/m 16,7 km/h (3 Bft) 93,62 %
11.05.2017 12:46 18,8 C 25,0 C 23,3 C 63 % 0 lf 997,9 hPa 0,0 l/m 2 min 0 min 535 W/m 12,6 km/h (3 Bft) 95,74 %
11.05.2017 12:48 18,9 C 23,9 C 23,3 C 63 % 0 lf 997,9 hPa 0,0 l/m 0 min 0 min 341 W/m 20,9 km/h (4 Bft) 93,62 %
11.05.2017 12:50 19,1 C 25,0 C 23,3 C 64 % 0 lf 997,9 hPa 0,0 l/m 0 min 0 min 381 W/m 18,8 km/h (3 Bft) 95,74 %
11.05.2017 12:52 19,2 C 25,6 C 23,9 C 64 % 0 lf 997,9 hPa 0,0 l/m 2 min 0 min 485 W/m 20,9 km/h (4 Bft) 97,87 %
11.05.2017 12:54 19,4 C 25,0 C 23,3 C 63 % 0 lf 997,8 hPa 0,0 l/m 2 min 0 min 434 W/m 29,3 km/h (5 Bft) 97,83 %
11.05.2017 12:56 19,6 C 25,0 C 22,8 C 63 % 0 lf 997,8 hPa 0,0 l/m 0 min 0 min 309 W/m 23,0 km/h (4 Bft) 95,74 %
11.05.2017 12:58 19,7 C 24,4 C 22,8 C 62 % 0 lf 997,8 hPa 0,0 l/m 0 min 0 min 285 W/m 27,2 km/h (4 Bft) 95,74 %
11.05.2017 13:00 19,8 C 25,0 C 23,3 C 62 % 0 lf 997,8 hPa 0,0 l/m 0 min 0 min 335 W/m 18,8 km/h (3 Bft) 97,87 %
11.05.2017 13:02 19,9 C 27,2 C 23,3 C 63 % 0 lf 997,7 hPa 0,0 l/m 2 min 0 min 552 W/m 14,6 km/h (3 Bft) 93,62 %
11.05.2017 13:04 20,1 C 30,0 C 24,4 C 64 % 0 lf 997,7 hPa 0,0 l/m 2 min 0 min 576 W/m 12,6 km/h (3 Bft) 97,83 %
11.05.2017 13:06 20,3 C 28,9 C 25,6 C 63 % 0 lf 997,7 hPa 0,0 l/m 2 min 0 min 565 W/m 14,6 km/h (3 Bft) 97,22 %
11.05.2017 13:08 20,5 C 28,3 C 24,4 C 61 % 0 lf 997,7 hPa 0,0 l/m 2 min 0 min 557 W/m 23,0 km/h (4 Bft) 97,87 %
11.05.2017 13:10 20,7 C 27,8 C 23,3 C 61 % 0 lf 997,7 hPa 0,0 l/m 2 min 0 min 429 W/m 20,9 km/h (4 Bft) 93,62 %
11.05.2017 13:12 20,8 C 27,2 C 23,3 C 60 % 0 lf 997,6 hPa 0,0 l/m 2 min 0 min 407 W/m 31,4 km/h (5 Bft) 97,87 %
11.05.2017 13:14 20,9 C 26,7 C 22,2 C 60 % 0 lf 997,7 hPa 0,0 l/m 0 min 0 min 358 W/m 27,2 km/h (4 Bft) 89,13 %
11.05.2017 13:16 21,0 C 26,1 C 22,2 C 60 % 0 lf 997,6 hPa 0,0 l/m 0 min 0 min 267 W/m 18,8 km/h (3 Bft) 97,87 %
11.05.2017 13:18 21,1 C 25,6 C 22,2 C 59 % 0 lf 997,5 hPa 0,0 l/m 0 min 0 min 224 W/m 23,0 km/h (4 Bft) 97,87 %
11.05.2017 13:20 21,1 C 26,7 C 22,8 C 60 % 0 lf 997,4 hPa 0,0 l/m 2 min 0 min 449 W/m 18,8 km/h (3 Bft) 95,74 %
11.05.2017 13:22 21,2 C 27,2 C 22,8 C 59 % 0 lf 997,4 hPa 0,0 l/m 2 min 0 min 530 W/m 23,0 km/h (4 Bft) 93,62 %
11.05.2017 13:24 21,2 C 26,1 C 22,8 C 60 % 0 lf 997,5 hPa 0,0 l/m 2 min 0 min 427 W/m 25,1 km/h (4 Bft) 93,62 %
11.05.2017 13:26 21,3 C 24,4 C 22,8 C 60 % 0 lf 997,5 hPa 0,0 l/m 0 min 0 min 299 W/m 27,2 km/h (4 Bft) 93,48 %
11.05.2017 13:28 21,3 C 23,3 C 22,8 C 59 % 0 lf 997,5 hPa 0,0 l/m 0 min 0 min 239 W/m 16,7 km/h (3 Bft) 95,74 %
11.05.2017 13:30 21,2 C 24,4 C 22,2 C 58 % 0 lf 997,5 hPa 0,0 l/m 0 min 0 min 269 W/m 16,7 km/h (3 Bft) 95,74 %
11.05.2017 13:32 21,2 C 23,9 C 22,2 C 59 % 0 lf 997,4 hPa 0,0 l/m 0 min 0 min 225 W/m 20,9 km/h (4 Bft) 93,62 %
11.05.2017 13:34 21,2 C 24,4 C 22,2 C 59 % 0 lf 997,4 hPa 0,0 l/m 0 min 0 min 305 W/m 18,8 km/h (3 Bft) 91,49 %
11.05.2017 13:36 21,2 C 25,0 C 22,8 C 59 % 0 lf 997,4 hPa 0,0 l/m 0 min 0 min 353 W/m 14,6 km/h (3 Bft) 96,30 %
11.05.2017 13:38 21,2 C 25,0 C 22,8 C 61 % 0 lf 997,4 hPa 0,0 l/m 0 min 0 min 280 W/m 14,6 km/h (3 Bft) 91,49 %
11.05.2017 13:40 21,2 C 23,9 C 22,8 C 60 % 0 lf 997,3 hPa 0,0 l/m 0 min 0 min 230 W/m 16,7 km/h (3 Bft) 89,13 %
11.05.2017 13:42 21,2 C 24,4 C 22,8 C 59 % 0 lf 997,3 hPa 0,0 l/m 0 min 0 min 274 W/m 16,7 km/h (3 Bft) 91,49 %
11.05.2017 13:44 21,2 C 26,1 C 23,3 C 60 % 0 lf 997,4 hPa 0,0 l/m 2 min 0 min 457 W/m 20,9 km/h (4 Bft) 91,49 %
11.05.2017 13:46 21,3 C 27,2 C 23,3 C 60 % 0 lf 997,3 hPa 0,0 l/m 2 min 0 min 473 W/m 18,8 km/h (3 Bft) 93,62 %
11.05.2017 13:48 21,3 C 28,9 C 23,9 C 61 % 0 lf 997,3 hPa 0,0 l/m 2 min 0 min 520 W/m 18,8 km/h (3 Bft) 93,62 %
11.05.2017 13:50 21,4 C 28,9 C 23,9 C 61 % 0 lf 997,1 hPa 0,0 l/m 2 min 0 min 520 W/m 18,8 km/h (3 Bft) 95,74 %
11.05.2017 13:52 21,5 C 29,4 C 24,4 C 61 % 0 lf 997,1 hPa 0,0 l/m 2 min 0 min 491 W/m 27,2 km/h (4 Bft) 91,30 %
11.05.2017 13:54 21,6 C 29,4 C 25,0 C 61 % 0 lf 997,0 hPa 0,0 l/m 2 min 0 min 537 W/m 16,7 km/h (3 Bft) 93,62 %
11.05.2017 13:56 21,8 C 28,9 C 25,0 C 61 % 0 lf 997,1 hPa 0,0 l/m 2 min 0 min 574 W/m 16,7 km/h (3 Bft) 89,36 %
11.05.2017 13:58 21,9 C 30,0 C 25,6 C 61 % 0 lf 997,0 hPa 0,0 l/m 2 min 0 min 568 W/m 16,7 km/h (3 Bft) 89,36 %
11.05.2017 14:00 22,1 C 31,1 C 26,7 C 60 % 0 lf 997,0 hPa 0,0 l/m 2 min 0 min 559 W/m 20,9 km/h (4 Bft) 93,62 %
11.05.2017 14:02 22,2 C 28,9 C 27,2 C 59 % 0 lf 997,0 hPa 0,0 l/m 2 min 0 min 552 W/m 20,9 km/h (4 Bft) 95,24 %
11.05.2017 14:04 22,3 C 28,3 C 27,8 C 61 % 0 lf 996,9 hPa 0,0 l/m 2 min 0 min 583 W/m 23,0 km/h (4 Bft) 93,62 %
11.05.2017 14:06 22,4 C 29,4 C 28,3 C 59 % 0 lf 997,0 hPa 0,0 l/m 2 min 0 min 545 W/m 23,0 km/h (4 Bft) 92,59 %
11.05.2017 14:08 22,4 C 28,3 C 28,9 C 58 % 0 lf 997,0 hPa 0,0 l/m 2 min 0 min 536 W/m 29,3 km/h (5 Bft) 93,62 %
11.05.2017 14:10 22,6 C 28,9 C 28,9 C 59 % 0 lf 997,0 hPa 0,0 l/m 2 min 0 min 531 W/m 29,3 km/h (5 Bft) 95,74 %
11.05.2017 14:12 22,6 C 29,4 C 29,4 C 59 % 0 lf 997,0 hPa 0,0 l/m 2 min 0 min 530 W/m 16,7 km/h (3 Bft) 93,62 %
11.05.2017 14:14 22,7 C 30,0 C 29,4 C 58 % 0 lf 997,0 hPa 0,0 l/m 2 min 0 min 531 W/m 14,6 km/h (3 Bft) 97,83 %
11.05.2017 14:16 22,8 C 30,0 C 30,6 C 59 % 0 lf 997,0 hPa 0,0 l/m 2 min 0 min 528 W/m 18,8 km/h (3 Bft) 97,87 %
11.05.2017 14:18 22,9 C 30,0 C 31,7 C 60 % 0 lf 996,9 hPa 0,0 l/m 2 min 0 min 525 W/m 16,7 km/h (3 Bft) 97,87 %
11.05.2017 14:20 23,0 C 28,3 C 31,7 C 58 % 0 lf 997,0 hPa 0,0 l/m 2 min 0 min 524 W/m 25,1 km/h (4 Bft) 100,00 %
11.05.2017 14:22 23,1 C 28,9 C 30,6 C 58 % 0 lf 996,9 hPa 0,0 l/m 2 min 0 min 519 W/m 18,8 km/h (3 Bft) 93,62 %
11.05.2017 14:24 23,1 C 28,9 C 30,6 C 56 % 0 lf 996,9 hPa 0,0 l/m 2 min 0 min 518 W/m 18,8 km/h (3 Bft) 97,87 %
11.05.2017 14:26 23,1 C 28,9 C 30,6 C 57 % 0 lf 996,9 hPa 0,0 l/m 2 min 0 min 516 W/m 16,7 km/h (3 Bft) 95,65 %
11.05.2017 14:28 23,1 C 28,9 C 31,1 C 57 % 0 lf 996,9 hPa 0,0 l/m 2 min 0 min 521 W/m 12,6 km/h (3 Bft) 100,00 %
11.05.2017 14:30 23,1 C 27,8 C 28,9 C 57 % 0 lf 996,9 hPa 0,0 l/m 2 min 0 min 427 W/m 14,6 km/h (3 Bft) 100,00 %
11.05.2017 14:32 23,1 C 27,2 C 28,9 C 56 % 0 lf 996,8 hPa 0,0 l/m 0 min 0 min 308 W/m 20,9 km/h (4 Bft) 95,74 %
11.05.2017 14:34 23,1 C 25,0 C 26,7 C 56 % 0 lf 996,9 hPa 0,0 l/m 0 min 0 min 292 W/m 25,1 km/h (4 Bft) 100,00 %
11.05.2017 14:36 23,0 C 23,9 C 25,0 C 57 % 0 lf 996,9 hPa 0,0 l/m 0 min 0 min 121 W/m 20,9 km/h (4 Bft) 97,96 %
11.05.2017 14:38 22,9 C 23,3 C 23,9 C 56 % 0 lf 996,9 hPa 0,0 l/m 0 min 0 min 98 W/m 18,8 km/h (3 Bft) 100,00 %
11.05.2017 14:40 22,8 C 23,3 C 23,3 C 56 % 0 lf 996,8 hPa 0,0 l/m 0 min 0 min 88 W/m 18,8 km/h (3 Bft) 100,00 %
11.05.2017 14:42 22,7 C 22,8 C 22,2 C 56 % 0 lf 996,8 hPa 0,0 l/m 0 min 0 min 91 W/m 16,7 km/h (3 Bft) 100,00 %
11.05.2017 14:44 22,6 C 22,8 C 21,7 C 56 % 0 lf 996,8 hPa 0,0 l/m 0 min 0 min 113 W/m 14,6 km/h (3 Bft) 100,00 %
11.05.2017 14:46 22,5 C 23,3 C 22,2 C 57 % 0 lf 996,7 hPa 0,0 l/m 0 min 0 min 139 W/m 12,6 km/h (3 Bft) 97,87 %
11.05.2017 14:48 22,4 C 23,3 C 22,2 C 57 % 0 lf 996,8 hPa 0,0 l/m 0 min 0 min 134 W/m 10,5 km/h (2 Bft) 97,83 %
11.05.2017 14:50 22,3 C 23,3 C 22,2 C 58 % 0 lf 996,8 hPa 0,0 l/m 0 min 0 min 141 W/m 14,6 km/h (3 Bft) 100,00 %
11.05.2017 14:52 22,3 C 23,9 C 22,8 C 59 % 0 lf 996,7 hPa 0,0 l/m 0 min 0 min 161 W/m 12,6 km/h (3 Bft) 97,30 %
11.05.2017 14:54 22,2 C 23,3 C 22,8 C 58 % 0 lf 996,6 hPa 0,0 l/m 0 min 0 min 156 W/m 12,6 km/h (3 Bft) 100,00 %
11.05.2017 14:56 22,2 C 23,9 C 22,8 C 58 % 0 lf 996,7 hPa 0,0 l/m 0 min 0 min 152 W/m 12,6 km/h (3 Bft) 95,74 %
11.05.2017 14:58 22,1 C 23,9 C 22,8 C 58 % 0 lf 996,6 hPa 0,0 l/m 0 min 0 min 170 W/m 8,4 km/h (2 Bft) 100,00 %
11.05.2017 15:00 22,1 C 23,9 C 22,2 C 58 % 0 lf 996,7 hPa 0,0 l/m 0 min 0 min 164 W/m 10,5 km/h (2 Bft) 97,87 %
11.05.2017 15:02 22,1 C 25,0 C 22,8 C 58 % 0 lf 996,6 hPa 0,0 l/m 0 min 0 min 192 W/m 14,6 km/h (3 Bft) 97,87 %
11.05.2017 15:04 22,0 C 25,6 C 23,3 C 58 % 0 lf 996,5 hPa 0,0 l/m 0 min 0 min 192 W/m 14,6 km/h (3 Bft) 100,00 %
11.05.2017 15:06 22,1 C 26,1 C 23,3 C 58 % 0 lf 996,5 hPa 0,0 l/m 0 min 0 min 199 W/m 14,6 km/h (3 Bft) 97,87 %
11.05.2017 15:08 22,1 C 26,7 C 25,6 C 58 % 0 lf 996,6 hPa 0,0 l/m 0 min 0 min 206 W/m 14,6 km/h (3 Bft) 100,00 %
11.05.2017 15:10 22,1 C 27,8 C 26,7 C 59 % 0 lf 996,5 hPa 0,0 l/m 0 min 0 min 206 W/m 16,7 km/h (3 Bft) 97,83 %
11.05.2017 15:12 22,2 C 28,3 C 27,8 C 60 % 0 lf 996,5 hPa 0,0 l/m 2 min 0 min 544 W/m 27,2 km/h (4 Bft) 100,00 %
11.05.2017 15:14 22,3 C 28,9 C 29,4 C 59 % 0 lf 996,4 hPa 0,0 l/m 2 min 0 min 633 W/m 18,8 km/h (3 Bft) 100,00 %
11.05.2017 15:16 22,5 C 28,9 C 29,4 C 60 % 0 lf 996,3 hPa 0,0 l/m 2 min 0 min 642 W/m 23,0 km/h (4 Bft) 100,00 %
11.05.2017 15:18 22,7 C 28,3 C 30,0 C 57 % 0 lf 996,3 hPa 0,0 l/m 0 min 0 min 347 W/m 16,7 km/h (3 Bft) 97,87 %
11.05.2017 15:20 22,8 C 30,0 C 30,6 C 58 % 0 lf 996,2 hPa 0,0 l/m 2 min 0 min 598 W/m 14,6 km/h (3 Bft) 100,00 %
11.05.2017 15:22 22,9 C 28,9 C 29,4 C 59 % 0 lf 996,2 hPa 0,0 l/m 0 min 0 min 330 W/m 12,6 km/h (3 Bft) 100,00 %
11.05.2017 15:24 23,1 C 26,7 C 27,8 C 57 % 0 lf 996,3 hPa 0,0 l/m 0 min 0 min 190 W/m 25,1 km/h (4 Bft) 100,00 %
11.05.2017 15:26 23,1 C 26,7 C 27,8 C 56 % 0 lf 996,3 hPa 0,0 l/m 0 min 0 min 244 W/m 14,6 km/h (3 Bft) 97,87 %
11.05.2017 15:28 23,2 C 27,2 C 27,2 C 57 % 0 lf 996,3 hPa 0,0 l/m 0 min 0 min 327 W/m 18,8 km/h (3 Bft) 100,00 %
11.05.2017 15:30 23,2 C 26,7 C 27,2 C 55 % 0 lf 996,3 hPa 0,0 l/m 0 min 0 min 304 W/m 23,0 km/h (4 Bft) 95,74 %
11.05.2017 15:32 23,2 C 26,1 C 26,7 C 55 % 0 lf 996,2 hPa 0,0 l/m 0 min 0 min 234 W/m 18,8 km/h (3 Bft) 97,87 %
11.05.2017 15:34 23,3 C 26,7 C 26,7 C 56 % 0 lf 996,2 hPa 0,0 l/m 0 min 0 min 233 W/m 10,5 km/h (2 Bft) 100,00 %
11.05.2017 15:36 23,3 C 27,2 C 27,8 C 57 % 0 lf 996,2 hPa 0,0 l/m 0 min 0 min 303 W/m 14,6 km/h (3 Bft) 100,00 %
11.05.2017 15:38 23,3 C 26,1 C 26,7 C 56 % 0 lf 996,3 hPa 0,0 l/m 0 min 0 min 249 W/m 14,6 km/h (3 Bft) 97,87 %
11.05.2017 15:40 23,3 C 26,1 C 26,7 C 56 % 0 lf 996,2 hPa 0,0 l/m 0 min 0 min 218 W/m 16,7 km/h (3 Bft) 97,87 %
11.05.2017 15:42 23,4 C 28,3 C 28,9 C 57 % 0 lf 996,2 hPa 0,0 l/m 2 min 0 min 482 W/m 16,7 km/h (3 Bft) 100,00 %
11.05.2017 15:44 23,4 C 29,4 C 30,6 C 56 % 0 lf 996,0 hPa 0,0 l/m 2 min 0 min 527 W/m 14,6 km/h (3 Bft) 100,00 %
11.05.2017 15:46 23,5 C 30,0 C 30,6 C 56 % 0 lf 996,0 hPa 0,0 l/m 2 min 0 min 536 W/m 14,6 km/h (3 Bft) 95,74 %
11.05.2017 15:48 23,6 C 28,9 C 30,6 C 55 % 0 lf 996,1 hPa 0,0 l/m 2 min 0 min 368 W/m 18,8 km/h (3 Bft) 95,65 %
11.05.2017 15:50 23,6 C 27,2 C 28,9 C 55 % 0 lf 996,1 hPa 0,0 l/m 0 min 0 min 288 W/m 20,9 km/h (4 Bft) 100,00 %
11.05.2017 15:52 23,7 C 26,1 C 27,2 C 55 % 0 lf 996,0 hPa 0,0 l/m 0 min 0 min 142 W/m 16,7 km/h (3 Bft) 97,92 %
11.05.2017 15:54 23,7 C 25,0 C 26,1 C 54 % 0 lf 996,0 hPa 0,0 l/m 0 min 0 min 151 W/m 10,5 km/h (2 Bft) 95,74 %
11.05.2017 15:56 23,6 C 25,0 C 25,6 C 54 % 0 lf 996,0 hPa 0,0 l/m 0 min 0 min 142 W/m 12,6 km/h (3 Bft) 93,62 %
11.05.2017 15:58 23,6 C 25,0 C 25,0 C 55 % 0 lf 995,9 hPa 0,0 l/m 0 min 0 min 146 W/m 12,6 km/h (3 Bft) 93,62 %
11.05.2017 16:00 23,6 C 25,0 C 24,4 C 55 % 0 lf 996,0 hPa 0,0 l/m 0 min 0 min 151 W/m 25,1 km/h (4 Bft) 95,65 %
11.05.2017 16:02 23,5 C 24,4 C 23,9 C 55 % 0 lf 996,0 hPa 0,0 l/m 0 min 0 min 145 W/m 18,8 km/h (3 Bft) 89,36 %
11.05.2017 16:04 23,5 C 24,4 C 23,3 C 55 % 0 lf 995,9 hPa 0,0 l/m 0 min 0 min 139 W/m 20,9 km/h (4 Bft) 91,49 %
11.05.2017 16:06 23,4 C 24,4 C 23,3 C 54 % 0 lf 995,9 hPa 0,0 l/m 0 min 0 min 130 W/m 16,7 km/h (3 Bft) 94,59 %
11.05.2017 16:08 23,3 C 23,9 C 23,3 C 54 % 0 lf 995,8 hPa 0,0 l/m 0 min 0 min 127 W/m 16,7 km/h (3 Bft) 93,62 %
11.05.2017 16:10 23,3 C 24,4 C 23,3 C 54 % 0 lf 995,7 hPa 0,0 l/m 0 min 0 min 124 W/m 18,8 km/h (3 Bft) 89,13 %
11.05.2017 16:12 23,3 C 24,4 C 23,3 C 55 % 0 lf 995,7 hPa 0,0 l/m 0 min 0 min 121 W/m 10,5 km/h (2 Bft) 95,74 %
11.05.2017 16:14 23,2 C 24,4 C 23,3 C 56 % 0 lf 995,7 hPa 0,0 l/m 0 min 0 min 120 W/m 6,3 km/h (2 Bft) 93,62 %
11.05.2017 16:16 23,2 C 24,4 C 23,3 C 55 % 0 lf 995,7 hPa 0,0 l/m 0 min 0 min 128 W/m 18,8 km/h (3 Bft) 93,62 %
11.05.2017 16:18 23,2 C 23,9 C 23,3 C 54 % 0 lf 995,7 hPa 0,0 l/m 0 min 0 min 126 W/m 18,8 km/h (3 Bft) 91,49 %
11.05.2017 16:20 23,1 C 23,9 C 22,8 C 54 % 0 lf 995,6 hPa 0,0 l/m 0 min 0 min 121 W/m 23,0 km/h (4 Bft) 91,30 %
11.05.2017 16:22 23,1 C 23,9 C 22,8 C 54 % 0 lf 995,6 hPa 0,0 l/m 0 min 0 min 118 W/m 23,0 km/h (4 Bft) 93,62 %
11.05.2017 16:24 23,1 C 23,9 C 22,8 C 54 % 0 lf 995,6 hPa 0,0 l/m 0 min 0 min 120 W/m 23,0 km/h (4 Bft) 95,74 %
11.05.2017 16:26 23,0 C 23,9 C 22,8 C 54 % 0 lf 995,5 hPa 0,0 l/m 0 min 0 min 121 W/m 14,6 km/h (3 Bft) 95,74 %
11.05.2017 16:28 23,0 C 23,9 C 23,3 C 55 % 0 lf 995,5 hPa 0,0 l/m 0 min 0 min 121 W/m 14,6 km/h (3 Bft) 93,62 %
11.05.2017 16:30 22,9 C 23,9 C 23,3 C 55 % 0 lf 995,4 hPa 0,0 l/m 0 min 0 min 122 W/m 10,5 km/h (2 Bft) 95,74 %
11.05.2017 16:32 22,9 C 23,9 C 23,3 C 55 % 0 lf 995,4 hPa 0,0 l/m 0 min 0 min 125 W/m 8,4 km/h (2 Bft) 91,30 %
11.05.2017 16:34 22,9 C 24,4 C 23,3 C 55 % 0 lf 995,3 hPa 0,0 l/m 0 min 0 min 128 W/m 10,5 km/h (2 Bft) 93,62 %
11.05.2017 16:36 22,9 C 24,4 C 23,3 C 55 % 0 lf 995,3 hPa 0,0 l/m 0 min 0 min 130 W/m 14,6 km/h (3 Bft) 89,36 %
11.05.2017 16:38 22,9 C 23,9 C 23,3 C 55 % 0 lf 995,3 hPa 0,0 l/m 0 min 0 min 133 W/m 16,7 km/h (3 Bft) 93,62 %
11.05.2017 16:40 22,9 C 23,9 C 23,3 C 54 % 0 lf 995,3 hPa 0,0 l/m 0 min 0 min 138 W/m 10,5 km/h (2 Bft) 85,11 %
11.05.2017 16:42 22,9 C 24,4 C 23,3 C 55 % 0 lf 995,3 hPa 0,0 l/m 0 min 0 min 145 W/m 14,6 km/h (3 Bft) 91,49 %
11.05.2017 16:44 22,9 C 24,4 C 23,3 C 54 % 0 lf 995,3 hPa 0,0 l/m 0 min 0 min 150 W/m 10,5 km/h (2 Bft) 93,48 %
11.05.2017 16:46 22,9 C 25,0 C 23,3 C 55 % 0 lf 995,3 hPa 0,0 l/m 0 min 0 min 158 W/m 14,6 km/h (3 Bft) 95,74 %
11.05.2017 16:48 22,9 C 25,0 C 23,9 C 55 % 0 lf 995,3 hPa 0,0 l/m 0 min 0 min 155 W/m 23,0 km/h (4 Bft) 95,74 %
11.05.2017 16:50 22,9 C 24,4 C 23,9 C 55 % 0 lf 995,4 hPa 0,0 l/m 0 min 0 min 150 W/m 18,8 km/h (3 Bft) 93,62 %
11.05.2017 16:52 22,9 C 24,4 C 23,3 C 55 % 0 lf 995,4 hPa 0,0 l/m 0 min 0 min 149 W/m 23,0 km/h (4 Bft) 95,74 %
11.05.2017 16:54 22,9 C 24,4 C 23,3 C 55 % 0 lf 995,3 hPa 0,0 l/m 0 min 0 min 154 W/m 12,6 km/h (3 Bft) 93,62 %
11.05.2017 16:56 22,9 C 24,4 C 23,3 C 55 % 0 lf 995,4 hPa 0,0 l/m 0 min 0 min 155 W/m 8,4 km/h (2 Bft) 97,83 %
11.05.2017 16:58 22,9 C 25,0 C 23,3 C 55 % 0 lf 995,3 hPa 0,0 l/m 0 min 0 min 155 W/m 14,6 km/h (3 Bft) 93,62 %
11.05.2017 17:00 23,0 C 25,0 C 23,3 C 55 % 0 lf 995,2 hPa 0,0 l/m 0 min 0 min 156 W/m 10,5 km/h (2 Bft) 97,87 %
11.05.2017 17:02 23,0 C 24,4 C 23,3 C 55 % 0 lf 995,1 hPa 0,0 l/m 0 min 0 min 145 W/m 20,9 km/h (4 Bft) 95,74 %
11.05.2017 17:04 23,0 C 24,4 C 23,3 C 55 % 0 lf 995,1 hPa 0,0 l/m 0 min 0 min 118 W/m 14,6 km/h (3 Bft) 97,87 %
11.05.2017 17:06 23,0 C 24,4 C 23,3 C 55 % 0 lf 995,1 hPa 0,0 l/m 0 min 0 min 111 W/m 14,6 km/h (3 Bft) 98,18 %
11.05.2017 17:08 23,0 C 24,4 C 22,8 C 55 % 0 lf 995,1 hPa 0,0 l/m 0 min 0 min 103 W/m 10,5 km/h (2 Bft) 97,87 %
11.05.2017 17:10 23,0 C 24,4 C 22,8 C 55 % 0 lf 995,1 hPa 0,0 l/m 0 min 0 min 100 W/m 14,6 km/h (3 Bft) 97,83 %
11.05.2017 17:12 23,0 C 24,4 C 22,8 C 55 % 0 lf 995,0 hPa 0,0 l/m 0 min 0 min 104 W/m 14,6 km/h (3 Bft) 91,49 %
11.05.2017 17:14 23,0 C 23,9 C 22,8 C 55 % 0 lf 995,0 hPa 0,0 l/m 0 min 0 min 114 W/m 16,7 km/h (3 Bft) 97,87 %
11.05.2017 17:16 23,0 C 23,9 C 22,2 C 55 % 0 lf 995,0 hPa 0,0 l/m 0 min 0 min 99 W/m 14,6 km/h (3 Bft) 95,74 %
11.05.2017 17:18 22,9 C 23,9 C 22,2 C 55 % 0 lf 994,9 hPa 0,0 l/m 0 min 0 min 87 W/m 14,6 km/h (3 Bft) 97,87 %
11.05.2017 17:20 22,9 C 23,9 C 22,2 C 55 % 0 lf 994,9 hPa 0,0 l/m 0 min 0 min 81 W/m 16,7 km/h (3 Bft) 95,74 %
11.05.2017 17:22 22,9 C 23,3 C 21,7 C 54 % 0 lf 994,9 hPa 0,0 l/m 0 min 0 min 79 W/m 10,5 km/h (2 Bft) 100,00 %
11.05.2017 17:24 22,9 C 23,9 C 22,2 C 54 % 0 lf 994,9 hPa 0,0 l/m 0 min 0 min 77 W/m 4,2 km/h (1 Bft) 100,00 %
11.05.2017 17:26 22,9 C 23,9 C 22,2 C 55 % 0 lf 994,9 hPa 0,0 l/m 0 min 0 min 74 W/m 6,3 km/h (2 Bft) 100,00 %
11.05.2017 17:28 22,8 C 23,9 C 21,7 C 55 % 0 lf 994,9 hPa 0,0 l/m 0 min 0 min 65 W/m 12,6 km/h (3 Bft) 95,74 %
11.05.2017 17:30 22,8 C 23,9 C 21,7 C 55 % 0 lf 994,9 hPa 0,0 l/m 0 min 0 min 55 W/m 8,4 km/h (2 Bft) 95,74 %
11.05.2017 17:32 22,8 C 23,9 C 21,7 C 55 % 0 lf 994,9 hPa 0,0 l/m 0 min 0 min 51 W/m 14,6 km/h (3 Bft) 97,92 %
11.05.2017 17:34 22,8 C 23,3 C 21,7 C 55 % 0 lf 994,9 hPa 0,0 l/m 0 min 0 min 52 W/m 4,2 km/h (1 Bft) 97,83 %
11.05.2017 17:36 22,8 C 23,3 C 21,7 C 56 % 0 lf 994,8 hPa 0,0 l/m 0 min 0 min 59 W/m 6,3 km/h (2 Bft) 97,37 %
11.05.2017 17:38 22,8 C 23,3 C 21,7 C 55 % 0 lf 994,8 hPa 0,0 l/m 0 min 0 min 65 W/m 6,3 km/h (2 Bft) 95,74 %
11.05.2017 17:40 22,7 C 23,3 C 21,7 C 55 % 0 lf 994,8 hPa 0,0 l/m 0 min 0 min 67 W/m 8,4 km/h (2 Bft) 100,00 %
11.05.2017 17:42 22,7 C 23,3 C 21,7 C 56 % 0 lf 994,8 hPa 0,0 l/m 0 min 0 min 65 W/m 4,2 km/h (1 Bft) 100,00 %
11.05.2017 17:44 22,7 C 23,3 C 21,7 C 55 % 0 lf 994,8 hPa 0,0 l/m 0 min 0 min 59 W/m 8,4 km/h (2 Bft) 100,00 %
11.05.2017 17:46 22,7 C 23,9 C 21,7 C 56 % 0 lf 994,7 hPa 0,0 l/m 0 min 0 min 50 W/m 4,2 km/h (1 Bft) 100,00 %
11.05.2017 17:48 22,7 C 23,3 C 21,7 C 56 % 0 lf 994,7 hPa 0,0 l/m 0 min 0 min 41 W/m 6,3 km/h (2 Bft) 93,62 %
11.05.2017 17:50 22,7 C 23,3 C 21,1 C 55 % 0 lf 994,7 hPa 0,0 l/m 0 min 0 min 30 W/m 4,2 km/h (1 Bft) 100,00 %
11.05.2017 17:52 22,7 C 22,8 C 21,1 C 55 % 0 lf 994,7 hPa 0,0 l/m 0 min 0 min 21 W/m 8,4 km/h (2 Bft) 97,87 %
11.05.2017 17:54 22,7 C 22,8 C 20,6 C 56 % 0 lf 994,7 hPa 0,0 l/m 0 min 0 min 16 W/m 6,3 km/h (2 Bft) 95,65 %
11.05.2017 17:56 22,7 C 22,8 C 20,6 C 56 % 0 lf 994,7 hPa 0,0 l/m 0 min 0 min 12 W/m 8,4 km/h (2 Bft) 95,74 %
11.05.2017 17:58 22,7 C 22,2 C 19,4 C 56 % 15 lf 994,8 hPa 0,0 l/m 0 min 2 min 11 W/m 16,7 km/h (3 Bft) 97,87 %
11.05.2017 18:00 22,6 C 18,3 C 16,1 C 57 % 15 lf 994,8 hPa 0,2 l/m 0 min 2 min 11 W/m 23,0 km/h (4 Bft) 97,87 %
11.05.2017 18:02 22,4 C 16,7 C 14,4 C 62 % 15 lf 994,8 hPa 0,6 l/m 0 min 2 min 9 W/m 31,4 km/h (5 Bft) 95,74 %
11.05.2017 18:04 22,1 C 16,1 C 14,4 C 64 % 15 lf 994,8 hPa 0,0 l/m 0 min 2 min 9 W/m 10,5 km/h (2 Bft) 97,87 %
11.05.2017 18:06 21,9 C 16,1 C 14,4 C 65 % 15 lf 994,8 hPa 0,0 l/m 0 min 2 min 9 W/m 12,6 km/h (3 Bft) 98,25 %
11.05.2017 18:08 21,6 C 15,6 C 14,4 C 66 % 15 lf 995,0 hPa 0,0 l/m 0 min 2 min 11 W/m 16,7 km/h (3 Bft) 94,44 %
11.05.2017 18:10 21,2 C 15,6 C 13,9 C 66 % 15 lf 994,9 hPa 0,0 l/m 0 min 2 min 11 W/m 23,0 km/h (4 Bft) 95,74 %
11.05.2017 18:12 20,9 C 15,6 C 13,9 C 68 % 15 lf 994,9 hPa 0,0 l/m 0 min 2 min 11 W/m 23,0 km/h (4 Bft) 95,74 %
11.05.2017 18:14 20,6 C 15,6 C 13,9 C 69 % 15 lf 994,9 hPa 0,0 l/m 0 min 2 min 12 W/m 18,8 km/h (3 Bft) 95,74 %
11.05.2017 18:16 20,3 C 15,6 C 13,9 C 70 % 15 lf 994,9 hPa 0,0 l/m 0 min 2 min 14 W/m 10,5 km/h (2 Bft) 97,87 %
11.05.2017 18:18 20,1 C 15,6 C 13,9 C 71 % 15 lf 994,8 hPa 0,0 l/m 0 min 2 min 15 W/m 10,5 km/h (2 Bft) 97,83 %
11.05.2017 18:20 19,9 C 15,6 C 13,9 C 72 % 15 lf 994,8 hPa 0,0 l/m 0 min 2 min 17 W/m 10,5 km/h (2 Bft) 97,87 %
11.05.2017 18:22 19,7 C 15,6 C 14,4 C 73 % 15 lf 994,8 hPa 0,0 l/m 0 min 2 min 19 W/m 8,4 km/h (2 Bft) 95,74 %
11.05.2017 18:24 19,6 C 15,6 C 14,4 C 74 % 15 lf 994,8 hPa 0,0 l/m 0 min 2 min 19 W/m 8,4 km/h (2 Bft) 97,87 %
11.05.2017 18:26 19,4 C 15,6 C 14,4 C 75 % 15 lf 994,8 hPa 0,0 l/m 0 min 2 min 17 W/m 8,4 km/h (2 Bft) 100,00 %
11.05.2017 18:28 19,3 C 15,6 C 13,9 C 75 % 15 lf 994,8 hPa 0,0 l/m 0 min 2 min 15 W/m 8,4 km/h (2 Bft) 100,00 %
11.05.2017 18:30 19,2 C 15,6 C 13,9 C 76 % 15 lf 994,8 hPa 0,0 l/m 0 min 0 min 12 W/m 8,4 km/h (2 Bft) 97,83 %
11.05.2017 18:32 19,0 C 15,6 C 13,9 C 76 % 15 lf 994,7 hPa 0,0 l/m 0 min 0 min 12 W/m 10,5 km/h (2 Bft) 100,00 %
11.05.2017 18:34 18,9 C 15,6 C 13,9 C 76 % 15 lf 994,9 hPa 0,0 l/m 0 min 0 min 14 W/m 8,4 km/h (2 Bft) 100,00 %
11.05.2017 18:36 18,7 C 15,6 C 13,9 C 77 % 15 lf 994,8 hPa 0,0 l/m 0 min 0 min 14 W/m 8,4 km/h (2 Bft) 97,87 %
11.05.2017 18:38 18,6 C 15,6 C 13,9 C 78 % 15 lf 994,9 hPa 0,0 l/m 0 min 0 min 13 W/m 14,6 km/h (3 Bft) 95,74 %
11.05.2017 18:40 18,4 C 15,6 C 13,9 C 78 % 15 lf 994,9 hPa 0,0 l/m 0 min 0 min 11 W/m 10,5 km/h (2 Bft) 95,74 %
11.05.2017 18:42 18,3 C 15,0 C 13,9 C 79 % 15 lf 994,9 hPa 0,0 l/m 0 min 2 min 10 W/m 12,6 km/h (3 Bft) 97,83 %
11.05.2017 18:44 18,2 C 15,0 C 13,9 C 79 % 15 lf 994,9 hPa 0,2 l/m 0 min 2 min 9 W/m 10,5 km/h (2 Bft) 95,74 %
11.05.2017 18:46 18,1 C 15,0 C 13,9 C 79 % 15 lf 995,0 hPa 0,0 l/m 0 min 2 min 9 W/m 8,4 km/h (2 Bft) 97,87 %
11.05.2017 18:48 17,9 C 15,0 C 13,9 C 80 % 15 lf 994,9 hPa 0,0 l/m 0 min 2 min 9 W/m 12,6 km/h (3 Bft) 97,87 %
11.05.2017 18:50 17,8 C 15,0 C 13,3 C 80 % 15 lf 995,0 hPa 0,0 l/m 0 min 2 min 9 W/m 14,6 km/h (3 Bft) 95,74 %
11.05.2017 18:52 17,7 C 15,0 C 13,3 C 80 % 15 lf 995,0 hPa 0,0 l/m 0 min 0 min 9 W/m 16,7 km/h (3 Bft) 97,87 %
11.05.2017 18:54 17,6 C 15,0 C 13,3 C 81 % 15 lf 994,9 hPa 0,0 l/m 0 min 0 min 8 W/m 23,0 km/h (4 Bft) 95,65 %
11.05.2017 18:56 17,4 C 15,0 C 13,3 C 81 % 15 lf 994,9 hPa 0,0 l/m 0 min 0 min 7 W/m 14,6 km/h (3 Bft) 95,74 %
11.05.2017 18:58 17,3 C 15,6 C 13,3 C 81 % 15 lf 995,0 hPa 0,0 l/m 0 min 0 min 7 W/m 12,6 km/h (3 Bft) 91,49 %
11.05.2017 19:00 17,3 C 15,6 C 13,3 C 81 % 15 lf 995,2 hPa 0,0 l/m 0 min 0 min 7 W/m 6,3 km/h (2 Bft) 95,74 %
11.05.2017 19:02 17,2 C 15,6 C 13,3 C 82 % 15 lf 995,2 hPa 0,0 l/m 0 min 0 min 7 W/m 10,5 km/h (2 Bft) 95,74 %
11.05.2017 19:04 17,1 C 15,6 C 13,3 C 82 % 15 lf 994,9 hPa 0,6 l/m 0 min 2 min 9 W/m 12,6 km/h (3 Bft) 95,74 %
11.05.2017 19:06 17,1 C 15,0 C 13,3 C 83 % 15 lf 994,9 hPa 0,6 l/m 0 min 2 min 11 W/m 12,6 km/h (3 Bft) 96,36 %
11.05.2017 19:08 17,0 C 15,0 C 13,3 C 83 % 15 lf 994,8 hPa 0,0 l/m 0 min 2 min 12 W/m 10,5 km/h (2 Bft) 93,48 %
11.05.2017 19:10 16,9 C 15,0 C 13,3 C 84 % 15 lf 994,9 hPa 0,0 l/m 0 min 2 min 15 W/m 10,5 km/h (2 Bft) 91,49 %
11.05.2017 19:12 16,8 C 15,0 C 13,3 C 84 % 15 lf 994,9 hPa 0,0 l/m 0 min 2 min 18 W/m 10,5 km/h (2 Bft) 95,74 %
11.05.2017 19:14 16,8 C 15,0 C 13,3 C 84 % 15 lf 994,9 hPa 0,0 l/m 0 min 0 min 19 W/m 8,4 km/h (2 Bft) 95,74 %
11.05.2017 19:16 16,7 C 15,0 C 13,3 C 85 % 15 lf 994,8 hPa 0,0 l/m 0 min 0 min 18 W/m 6,3 km/h (2 Bft) 95,74 %
11.05.2017 19:18 16,7 C 15,0 C 13,9 C 85 % 15 lf 994,9 hPa 0,0 l/m 0 min 0 min 14 W/m 4,2 km/h (1 Bft) 95,74 %
11.05.2017 19:20 16,6 C 15,0 C 13,9 C 86 % 15 lf 995,2 hPa 0,0 l/m 0 min 2 min 12 W/m 8,4 km/h (2 Bft) 92,11 %
11.05.2017 19:22 16,6 C 15,0 C 13,9 C 86 % 15 lf 995,3 hPa 0,0 l/m 0 min 2 min 12 W/m 10,5 km/h (2 Bft) 93,62 %
11.05.2017 19:24 16,6 C 14,4 C 13,3 C 86 % 15 lf 995,4 hPa 0,2 l/m 0 min 2 min 14 W/m 8,4 km/h (2 Bft) 95,74 %
11.05.2017 19:26 16,5 C 14,4 C 13,3 C 87 % 15 lf 995,5 hPa 0,0 l/m 0 min 2 min 14 W/m 14,6 km/h (3 Bft) 95,74 %
11.05.2017 19:28 16,4 C 14,4 C 13,3 C 87 % 15 lf 995,5 hPa 0,4 l/m 0 min 2 min 12 W/m 12,6 km/h (3 Bft) 93,48 %
11.05.2017 19:30 16,3 C 14,4 C 13,3 C 87 % 15 lf 995,5 hPa 0,0 l/m 0 min 2 min 10 W/m 6,3 km/h (2 Bft) 93,62 %
11.05.2017 19:32 16,2 C 14,4 C 13,3 C 88 % 15 lf 995,4 hPa 0,2 l/m 0 min 2 min 9 W/m 8,4 km/h (2 Bft) 95,74 %
11.05.2017 19:34 16,2 C 14,4 C 13,3 C 88 % 15 lf 995,3 hPa 0,2 l/m 0 min 2 min 7 W/m 10,5 km/h (2 Bft) 97,87 %
11.05.2017 19:36 16,2 C 14,4 C 13,3 C 88 % 15 lf 995,3 hPa 0,0 l/m 0 min 2 min 6 W/m 8,4 km/h (2 Bft) 95,74 %
11.05.2017 19:38 16,1 C 14,4 C 13,3 C 89 % 15 lf 995,2 hPa 0,0 l/m 0 min 2 min 5 W/m 8,4 km/h (2 Bft) 97,87 %
11.05.2017 19:40 16,1 C 14,4 C 13,3 C 89 % 15 lf 995,2 hPa 0,0 l/m 0 min 2 min 5 W/m 10,5 km/h (2 Bft) 93,48 %
11.05.2017 19:42 16,1 C 14,4 C 13,3 C 89 % 15 lf 995,2 hPa 0,2 l/m 0 min 2 min 5 W/m 14,6 km/h (3 Bft) 100,00 %
11.05.2017 19:44 16,0 C 14,4 C 13,3 C 89 % 15 lf 995,2 hPa 0,0 l/m 0 min 2 min 5 W/m 12,6 km/h (3 Bft) 95,74 %
11.05.2017 19:46 16,0 C 14,4 C 13,3 C 89 % 15 lf 995,2 hPa 0,0 l/m 0 min 2 min 4 W/m 10,5 km/h (2 Bft) 97,87 %
11.05.2017 19:48 15,9 C 14,4 C 13,3 C 90 % 15 lf 995,3 hPa 0,0 l/m 0 min 2 min 0 W/m 10,5 km/h (2 Bft) 95,74 %
11.05.2017 19:50 15,9 C 14,4 C 13,3 C 90 % 15 lf 995,3 hPa 0,0 l/m 0 min 2 min 0 W/m 6,3 km/h (2 Bft) 97,87 %
11.05.2017 19:52 15,9 C 14,4 C 13,3 C 90 % 15 lf 995,3 hPa 0,0 l/m 0 min 2 min 0 W/m 6,3 km/h (2 Bft) 91,30 %
11.05.2017 19:54 15,9 C 14,4 C 13,3 C 90 % 15 lf 995,3 hPa 0,2 l/m 0 min 2 min 2 W/m 6,3 km/h (2 Bft) 97,87 %
11.05.2017 19:56 15,9 C 14,4 C 13,3 C 90 % 15 lf 995,2 hPa 0,0 l/m 0 min 2 min 0 W/m 8,4 km/h (2 Bft) 95,74 %
11.05.2017 19:58 15,8 C 14,4 C 13,3 C 90 % 15 lf 995,2 hPa 0,0 l/m 0 min 2 min 0 W/m 8,4 km/h (2 Bft) 95,74 %
11.05.2017 20:00 15,8 C 14,4 C 13,3 C 90 % 15 lf 995,2 hPa 0,0 l/m 0 min 2 min 0 W/m 12,6 km/h (3 Bft) 97,87 %
11.05.2017 20:02 15,8 C 14,4 C 13,3 C 90 % 15 lf 995,2 hPa 0,0 l/m 0 min 2 min 5 W/m 10,5 km/h (2 Bft) 95,74 %
11.05.2017 20:04 15,8 C 14,4 C 13,3 C 90 % 15 lf 995,2 hPa 0,0 l/m 0 min 0 min 5 W/m 10,5 km/h (2 Bft) 95,65 %
11.05.2017 20:06 15,7 C 14,4 C 13,3 C 90 % 15 lf 995,3 hPa 0,0 l/m 0 min 0 min 5 W/m 10,5 km/h (2 Bft) 96,36 %
11.05.2017 20:08 15,7 C 14,4 C 13,3 C 91 % 15 lf 995,2 hPa 0,0 l/m 0 min 0 min 7 W/m 8,4 km/h (2 Bft) 95,74 %
11.05.2017 20:10 15,7 C 14,4 C 13,3 C 91 % 15 lf 995,3 hPa 0,0 l/m 0 min 0 min 7 W/m 6,3 km/h (2 Bft) 93,62 %
11.05.2017 20:12 15,7 C 14,4 C 13,3 C 91 % 15 lf 995,3 hPa 0,0 l/m 0 min 0 min 7 W/m 6,3 km/h (2 Bft) 95,74 %
11.05.2017 20:14 15,6 C 14,4 C 13,3 C 91 % 15 lf 995,4 hPa 0,0 l/m 0 min 0 min 7 W/m 8,4 km/h (2 Bft) 95,74 %
11.05.2017 20:16 15,6 C 14,4 C 13,3 C 91 % 15 lf 995,4 hPa 0,0 l/m 0 min 0 min 8 W/m 6,3 km/h (2 Bft) 93,62 %
11.05.2017 20:18 15,6 C 14,4 C 13,3 C 91 % 15 lf 995,4 hPa 0,0 l/m 0 min 0 min 9 W/m 4,2 km/h (1 Bft) 97,83 %
11.05.2017 20:20 15,6 C 14,4 C 13,3 C 91 % 15 lf 995,4 hPa 0,0 l/m 0 min 0 min 9 W/m 4,2 km/h (1 Bft) 93,62 %
11.05.2017 20:22 15,6 C 14,4 C 13,3 C 91 % 15 lf 995,4 hPa 0,0 l/m 0 min 0 min 11 W/m 2,1 km/h (1 Bft) 97,87 %
11.05.2017 20:24 15,6 C 14,4 C 13,3 C 91 % 15 lf 995,3 hPa 0,0 l/m 0 min 0 min 11 W/m 4,2 km/h (1 Bft) 97,87 %
11.05.2017 20:26 15,5 C 14,4 C 13,3 C 91 % 15 lf 995,3 hPa 0,0 l/m 0 min 0 min 11 W/m 4,2 km/h (1 Bft) 95,74 %
11.05.2017 20:28 15,5 C 14,4 C 13,3 C 91 % 15 lf 995,3 hPa 0,0 l/m 0 min 0 min 9 W/m 2,1 km/h (1 Bft) 97,87 %
11.05.2017 20:30 15,5 C 14,4 C 13,3 C 91 % 15 lf 995,4 hPa 0,0 l/m 0 min 0 min 9 W/m 2,1 km/h (1 Bft) 100,00 %
11.05.2017 20:32 15,5 C 14,4 C 13,3 C 91 % 15 lf 995,4 hPa 0,0 l/m 0 min 0 min 9 W/m 2,1 km/h (1 Bft) 95,74 %
11.05.2017 20:34 15,4 C 14,4 C 13,3 C 91 % 15 lf 995,4 hPa 0,0 l/m 0 min 0 min 9 W/m 4,2 km/h (1 Bft) 97,87 %
11.05.2017 20:36 15,4 C 14,4 C 13,3 C 92 % 15 lf 995,4 hPa 0,0 l/m 0 min 0 min 9 W/m 4,2 km/h (1 Bft) 97,37 %
11.05.2017 20:38 15,4 C 14,4 C 13,3 C 92 % 15 lf 995,5 hPa 0,0 l/m 0 min 0 min 9 W/m 2,1 km/h (1 Bft) 97,87 %
11.05.2017 20:40 15,4 C 14,4 C 13,3 C 92 % 15 lf 995,5 hPa 0,0 l/m 0 min 0 min 11 W/m 4,2 km/h (1 Bft) 93,62 %
11.05.2017 20:42 15,4 C 14,4 C 13,3 C 92 % 15 lf 995,5 hPa 0,0 l/m 0 min 0 min 11 W/m 0,0 km/h (0 Bft) 95,74 %
11.05.2017 20:44 15,4 C 14,4 C 13,3 C 92 % 15 lf 995,5 hPa 0,0 l/m 0 min 0 min 11 W/m 0,0 km/h (0 Bft) 93,62 %
11.05.2017 20:46 15,4 C 14,4 C 13,3 C 92 % 15 lf 995,5 hPa 0,0 l/m 0 min 0 min 10 W/m 0,0 km/h (0 Bft) 97,87 %
11.05.2017 20:48 15,4 C 14,4 C 13,3 C 92 % 15 lf 995,5 hPa 0,0 l/m 0 min 0 min 9 W/m 0,0 km/h (0 Bft) 95,74 %
11.05.2017 20:50 15,4 C 14,4 C 13,3 C 93 % 15 lf 995,6 hPa 0,0 l/m 0 min 0 min 8 W/m 0,0 km/h (0 Bft) 97,83 %
11.05.2017 20:52 15,4 C 14,4 C 13,3 C 93 % 15 lf 995,6 hPa 0,0 l/m 0 min 0 min 7 W/m 0,0 km/h (0 Bft) 97,87 %
11.05.2017 20:54 15,4 C 14,4 C 13,3 C 93 % 15 lf 995,6 hPa 0,0 l/m 0 min 0 min 5 W/m 0,0 km/h (0 Bft) 97,87 %
11.05.2017 20:56 15,4 C 14,4 C 13,3 C 93 % 15 lf 995,5 hPa 0,0 l/m 0 min 0 min 5 W/m 0,0 km/h (0 Bft) 97,87 %
11.05.2017 20:58 15,4 C 14,4 C 13,3 C 93 % 15 lf 995,6 hPa 0,0 l/m 0 min 0 min 3 W/m 0,0 km/h (0 Bft) 97,87 %
11.05.2017 21:00 15,4 C 14,4 C 13,3 C 93 % 15 lf 995,7 hPa 0,0 l/m 0 min 0 min 0 W/m 0,0 km/h (0 Bft) 97,87 %
11.05.2017 21:02 15,3 C 14,4 C 13,3 C 93 % 15 lf 995,7 hPa 0,0 l/m 0 min 0 min 0 W/m 0,0 km/h (0 Bft) 95,65 %
11.05.2017 21:04 15,3 C 14,4 C 13,3 C 93 % 15 lf 995,7 hPa 0,0 l/m 0 min 0 min 0 W/m 0,0 km/h (0 Bft) 100,00 %
11.05.2017 21:06 15,3 C 14,4 C 13,3 C 93 % 15 lf 995,7 hPa 0,0 l/m 0 min 0 min 0 W/m 4,2 km/h (1 Bft) 97,87 %
11.05.2017 21:08 15,3 C 14,4 C 13,3 C 93 % 15 lf 995,7 hPa 0,0 l/m 0 min 0 min 0 W/m 6,3 km/h (2 Bft) 100,00 %
11.05.2017 21:10 15,3 C 14,4 C 13,3 C 93 % 15 lf 995,7 hPa 0,0 l/m 0 min 0 min 0 W/m 6,3 km/h (2 Bft) 100,00 %
11.05.2017 21:12 15,3 C 14,4 C 13,3 C 93 % 15 lf 995,8 hPa 0,0 l/m 0 min 0 min 0 W/m 4,2 km/h (1 Bft) 95,74 %
11.05.2017 21:14 15,3 C 14,4 C 13,3 C 93 % 15 lf 995,7 hPa 0,0 l/m 0 min 0 min 0 W/m 4,2 km/h (1 Bft) 95,65 %
11.05.2017 21:16 15,3 C 14,4 C 13,3 C 93 % 15 lf 995,8 hPa 0,0 l/m 0 min 0 min 0 W/m 4,2 km/h (1 Bft) 97,87 %
11.05.2017 21:18 15,3 C 14,4 C 13,3 C 93 % 15 lf 995,8 hPa 0,0 l/m 0 min 0 min 0 W/m 6,3 km/h (2 Bft) 93,62 %
11.05.2017 21:20 15,3 C 14,4 C 13,3 C 93 % 15 lf 995,8 hPa 0,0 l/m 0 min 0 min 0 W/m 6,3 km/h (2 Bft) 95,74 %
11.05.2017 21:22 15,3 C 14,4 C 13,3 C 94 % 15 lf 995,9 hPa 0,0 l/m 0 min 0 min 0 W/m 4,2 km/h (1 Bft) 100,00 %
11.05.2017 21:24 15,3 C 14,4 C 13,3 C 94 % 15 lf 995,9 hPa 0,0 l/m 0 min 0 min 0 W/m 4,2 km/h (1 Bft) 100,00 %
11.05.2017 21:26 15,3 C 14,4 C 13,3 C 94 % 15 lf 995,9 hPa 0,0 l/m 0 min 0 min 0 W/m 2,1 km/h (1 Bft) 100,00 %
11.05.2017 21:28 15,3 C 14,4 C 13,3 C 94 % 15 lf 995,9 hPa 0,0 l/m 0 min 0 min 0 W/m 4,2 km/h (1 Bft) 97,87 %
11.05.2017 21:30 15,2 C 14,4 C 13,3 C 94 % 15 lf 995,8 hPa 0,0 l/m 0 min 0 min 0 W/m 2,1 km/h (1 Bft) 97,87 %
11.05.2017 21:32 15,2 C 14,4 C 13,3 C 94 % 15 lf 995,9 hPa 0,0 l/m 0 min 0 min 0 W/m 4,2 km/h (1 Bft) 95,74 %
11.05.2017 21:34 15,2 C 14,4 C 13,3 C 94 % 15 lf 996,0 hPa 0,0 l/m 0 min 0 min 0 W/m 4,2 km/h (1 Bft) 100,00 %
11.05.2017 21:36 15,2 C 14,4 C 13,3 C 94 % 15 lf 996,0 hPa 0,0 l/m 0 min 0 min 0 W/m 6,3 km/h (2 Bft) 98,18 %
11.05.2017 21:38 15,2 C 14,4 C 13,3 C 94 % 15 lf 996,1 hPa 0,0 l/m 0 min 0 min 0 W/m 6,3 km/h (2 Bft) 97,87 %
11.05.2017 21:40 15,2 C 14,4 C 13,3 C 94 % 15 lf 996,1 hPa 0,0 l/m 0 min 0 min 0 W/m 6,3 km/h (2 Bft) 95,65 %
11.05.2017 21:42 15,2 C 14,4 C 13,3 C 94 % 15 lf 996,3 hPa 0,0 l/m 0 min 0 min 0 W/m 10,5 km/h (2 Bft) 89,36 %
11.05.2017 21:44 15,2 C 14,4 C 13,3 C 94 % 15 lf 996,4 hPa 0,0 l/m 0 min 0 min 0 W/m 4,2 km/h (1 Bft) 87,23 %
11.05.2017 21:46 15,2 C 14,4 C 13,3 C 94 % 15 lf 996,3 hPa 0,0 l/m 0 min 0 min 0 W/m 6,3 km/h (2 Bft) 93,62 %
11.05.2017 21:48 15,1 C 14,4 C 13,3 C 94 % 15 lf 996,5 hPa 0,0 l/m 0 min 0 min 0 W/m 10,5 km/h (2 Bft) 93,62 %
11.05.2017 21:50 15,1 C 14,4 C 13,3 C 94 % 15 lf 996,5 hPa 0,0 l/m 0 min 0 min 0 W/m 8,4 km/h (2 Bft) 91,49 %
11.05.2017 21:52 15,1 C 14,4 C 13,3 C 94 % 15 lf 996,5 hPa 0,0 l/m 0 min 0 min 0 W/m 8,4 km/h (2 Bft) 93,48 %
11.05.2017 21:54 15,1 C 14,4 C 13,3 C 94 % 15 lf 996,5 hPa 0,0 l/m 0 min 0 min 0 W/m 10,5 km/h (2 Bft) 91,49 %
11.05.2017 21:56 15,1 C 14,4 C 12,8 C 94 % 15 lf 996,6 hPa 0,0 l/m 0 min 0 min 0 W/m 8,4 km/h (2 Bft) 93,62 %
11.05.2017 21:58 15,1 C 14,4 C 12,8 C 94 % 15 lf 996,5 hPa 0,0 l/m 0 min 0 min 0 W/m 8,4 km/h (2 Bft) 93,62 %
11.05.2017 22:00 15,1 C 14,4 C 12,8 C 94 % 15 lf 996,5 hPa 0,0 l/m 0 min 0 min 0 W/m 4,2 km/h (1 Bft) 93,62 %
11.05.2017 22:02 15,1 C 14,4 C 12,8 C 94 % 15 lf 996,5 hPa 0,0 l/m 0 min 0 min 0 W/m 6,3 km/h (2 Bft) 89,36 %
11.05.2017 22:04 15,0 C 14,4 C 12,8 C 94 % 15 lf 996,5 hPa 0,0 l/m 0 min 0 min 0 W/m 4,2 km/h (1 Bft) 95,65 %
11.05.2017 22:06 15,0 C 14,4 C 12,8 C 94 % 15 lf 996,5 hPa 0,0 l/m 0 min 0 min 0 W/m 4,2 km/h (1 Bft) 92,11 %
11.05.2017 22:08 15,0 C 14,4 C 12,8 C 94 % 15 lf 996,5 hPa 0,0 l/m 0 min 0 min 0 W/m 2,1 km/h (1 Bft) 91,49 %
11.05.2017 22:10 15,0 C 14,4 C 12,8 C 95 % 15 lf 996,6 hPa 0,0 l/m 0 min 0 min 0 W/m 2,1 km/h (1 Bft) 93,62 %
11.05.2017 22:12 15,0 C 14,4 C 12,8 C 95 % 15 lf 996,5 hPa 0,0 l/m 0 min 0 min 0 W/m 2,1 km/h (1 Bft) 87,23 %
11.05.2017 22:14 15,0 C 14,4 C 12,8 C 95 % 15 lf 996,5 hPa 0,0 l/m 0 min 0 min 0 W/m 2,1 km/h (1 Bft) 93,62 %
11.05.2017 22:16 14,9 C 14,4 C 12,8 C 95 % 15 lf 996,6 hPa 0,0 l/m 0 min 0 min 0 W/m 0,0 km/h (0 Bft) 95,74 %
11.05.2017 22:18 14,9 C 14,4 C 12,8 C 95 % 15 lf 996,6 hPa 0,0 l/m 0 min 2 min 0 W/m 2,1 km/h (1 Bft) 89,13 %
11.05.2017 22:20 14,9 C 14,4 C 12,8 C 95 % 15 lf 996,6 hPa 0,0 l/m 0 min 2 min 0 W/m 2,1 km/h (1 Bft) 95,74 %
11.05.2017 22:22 14,9 C 14,4 C 12,8 C 95 % 15 lf 996,7 hPa 0,0 l/m 0 min 0 min 0 W/m 2,1 km/h (1 Bft) 92,98 %
11.05.2017 22:24 14,9 C 14,4 C 12,8 C 95 % 15 lf 996,7 hPa 0,0 l/m 0 min 0 min 0 W/m 2,1 km/h (1 Bft) 95,74 %
11.05.2017 22:26 14,9 C 14,4 C 12,8 C 95 % 15 lf 996,7 hPa 0,0 l/m 0 min 0 min 0 W/m 2,1 km/h (1 Bft) 97,83 %
11.05.2017 22:28 14,9 C 14,4 C 12,8 C 95 % 15 lf 996,8 hPa 0,0 l/m 0 min 0 min 0 W/m 2,1 km/h (1 Bft) 97,87 %
11.05.2017 22:30 14,9 C 14,4 C 12,8 C 95 % 15 lf 996,9 hPa 0,0 l/m 0 min 0 min 0 W/m 4,2 km/h (1 Bft) 95,74 %
11.05.2017 22:32 14,9 C 14,4 C 13,3 C 95 % 15 lf 996,8 hPa 0,0 l/m 0 min 0 min 0 W/m 4,2 km/h (1 Bft) 94,74 %
11.05.2017 22:34 14,9 C 14,4 C 12,8 C 95 % 15 lf 996,9 hPa 0,0 l/m 0 min 0 min 0 W/m 6,3 km/h (2 Bft) 97,87 %
11.05.2017 22:36 14,9 C 14,4 C 13,3 C 95 % 15 lf 996,8 hPa 0,0 l/m 0 min 0 min 0 W/m 6,3 km/h (2 Bft) 96,49 %
11.05.2017 22:38 14,9 C 14,4 C 13,3 C 95 % 15 lf 996,9 hPa 0,0 l/m 0 min 0 min 0 W/m 6,3 km/h (2 Bft) 97,83 %
11.05.2017 22:40 14,9 C 14,4 C 13,3 C 95 % 15 lf 997,0 hPa 0,0 l/m 0 min 0 min 0 W/m 6,3 km/h (2 Bft) 100,00 %
11.05.2017 22:42 14,9 C 14,4 C 13,3 C 95 % 15 lf 997,0 hPa 0,0 l/m 0 min 0 min 0 W/m 10,5 km/h (2 Bft) 100,00 %
11.05.2017 22:44 14,9 C 14,4 C 12,8 C 95 % 15 lf 997,0 hPa 0,0 l/m 0 min 0 min 0 W/m 12,6 km/h (3 Bft) 100,00 %
11.05.2017 22:46 14,9 C 14,4 C 12,8 C 95 % 15 lf 997,0 hPa 0,0 l/m 0 min 0 min 0 W/m 8,4 km/h (2 Bft) 97,87 %
11.05.2017 22:48 14,9 C 14,4 C 12,8 C 95 % 15 lf 997,0 hPa 0,0 l/m 0 min 0 min 0 W/m 18,8 km/h (3 Bft) 100,00 %
11.05.2017 22:50 14,8 C 14,4 C 12,8 C 95 % 15 lf 997,0 hPa 0,0 l/m 0 min 0 min 0 W/m 14,6 km/h (3 Bft) 100,00 %
11.05.2017 22:52 14,8 C 14,4 C 12,8 C 95 % 15 lf 997,1 hPa 0,0 l/m 0 min 0 min 0 W/m 10,5 km/h (2 Bft) 97,87 %
11.05.2017 22:54 14,8 C 14,4 C 12,8 C 95 % 15 lf 997,0 hPa 0,0 l/m 0 min 0 min 0 W/m 20,9 km/h (4 Bft) 100,00 %
11.05.2017 22:56 14,7 C 14,4 C 12,8 C 95 % 15 lf 997,1 hPa 0,0 l/m 0 min 0 min 0 W/m 14,6 km/h (3 Bft) 100,00 %
11.05.2017 22:58 14,7 C 13,9 C 12,8 C 95 % 15 lf 997,1 hPa 0,0 l/m 0 min 0 min 0 W/m 14,6 km/h (3 Bft) 100,00 %
11.05.2017 23:00 14,6 C 13,9 C 12,8 C 94 % 15 lf 997,1 hPa 0,0 l/m 0 min 0 min 0 W/m 16,7 km/h (3 Bft) 100,00 %
11.05.2017 23:02 14,6 C 13,9 C 12,8 C 94 % 15 lf 997,2 hPa 0,0 l/m 0 min 0 min 0 W/m 16,7 km/h (3 Bft) 100,00 %
11.05.2017 23:04 14,5 C 13,9 C 12,8 C 94 % 15 lf 997,1 hPa 0,0 l/m 0 min 0 min 0 W/m 16,7 km/h (3 Bft) 97,83 %
11.05.2017 23:06 14,4 C 13,9 C 12,8 C 93 % 15 lf 997,2 hPa 0,0 l/m 0 min 0 min 0 W/m 18,8 km/h (3 Bft) 100,00 %
11.05.2017 23:08 14,4 C 13,9 C 12,8 C 93 % 15 lf 997,2 hPa 0,0 l/m 0 min 0 min 0 W/m 14,6 km/h (3 Bft) 97,87 %
11.05.2017 23:10 14,4 C 13,9 C 12,8 C 93 % 15 lf 997,2 hPa 0,0 l/m 0 min 0 min 0 W/m 20,9 km/h (4 Bft) 100,00 %
11.05.2017 23:12 14,4 C 13,9 C 12,8 C 92 % 15 lf 997,2 hPa 0,0 l/m 0 min 0 min 0 W/m 23,0 km/h (4 Bft) 97,83 %
11.05.2017 23:14 14,4 C 13,9 C 12,8 C 92 % 15 lf 997,2 hPa 0,0 l/m 0 min 0 min 0 W/m 16,7 km/h (3 Bft) 100,00 %
11.05.2017 23:16 14,4 C 14,4 C 12,8 C 91 % 14 lf 997,2 hPa 0,0 l/m 0 min 0 min 0 W/m 16,7 km/h (3 Bft) 97,87 %
11.05.2017 23:18 14,4 C 13,9 C 12,8 C 90 % 14 lf 997,2 hPa 0,0 l/m 0 min 0 min 0 W/m 12,6 km/h (3 Bft) 100,00 %
11.05.2017 23:20 14,5 C 13,9 C 12,2 C 89 % 12 lf 997,2 hPa 0,0 l/m 0 min 0 min 0 W/m 10,5 km/h (2 Bft) 100,00 %
11.05.2017 23:22 14,6 C 13,9 C 12,8 C 89 % 8 lf 997,3 hPa 0,0 l/m 0 min 0 min 0 W/m 14,6 km/h (3 Bft) 100,00 %
11.05.2017 23:24 14,6 C 13,9 C 12,2 C 88 % 4 lf 997,2 hPa 0,0 l/m 0 min 0 min 0 W/m 14,6 km/h (3 Bft) 100,00 %
11.05.2017 23:26 14,7 C 13,9 C 12,2 C 88 % 3 lf 997,2 hPa 0,0 l/m 0 min 0 min 0 W/m 14,6 km/h (3 Bft) 97,83 %
11.05.2017 23:28 14,7 C 13,9 C 12,2 C 88 % 2 lf 997,2 hPa 0,0 l/m 0 min 0 min 0 W/m 12,6 km/h (3 Bft) 95,74 %
11.05.2017 23:30 14,7 C 13,9 C 12,2 C 87 % 1 lf 997,3 hPa 0,0 l/m 0 min 0 min 0 W/m 10,5 km/h (2 Bft) 97,87 %
11.05.2017 23:32 14,7 C 13,9 C 12,2 C 87 % 0 lf 997,2 hPa 0,0 l/m 0 min 0 min 0 W/m 12,6 km/h (3 Bft) 97,92 %
11.05.2017 23:34 14,8 C 13,9 C 12,2 C 87 % 0 lf 997,3 hPa 0,0 l/m 0 min 0 min 0 W/m 12,6 km/h (3 Bft) 95,74 %
11.05.2017 23:36 14,8 C 13,9 C 12,2 C 86 % 0 lf 997,3 hPa 0,0 l/m 0 min 0 min 0 W/m 8,4 km/h (2 Bft) 97,96 %
11.05.2017 23:38 14,8 C 13,9 C 12,2 C 86 % 1 lf 997,3 hPa 0,0 l/m 0 min 0 min 0 W/m 8,4 km/h (2 Bft) 97,87 %
11.05.2017 23:40 14,9 C 13,9 C 12,2 C 86 % 0 lf 997,4 hPa 0,0 l/m 0 min 0 min 0 W/m 12,6 km/h (3 Bft) 95,74 %
11.05.2017 23:42 14,9 C 13,9 C 12,2 C 86 % 0 lf 997,4 hPa 0,0 l/m 0 min 0 min 0 W/m 8,4 km/h (2 Bft) 95,74 %
11.05.2017 23:44 14,9 C 13,9 C 12,2 C 86 % 0 lf 997,4 hPa 0,0 l/m 0 min 0 min 0 W/m 8,4 km/h (2 Bft) 93,62 %
11.05.2017 23:46 14,9 C 13,9 C 12,2 C 86 % 1 lf 997,4 hPa 0,0 l/m 0 min 0 min 0 W/m 14,6 km/h (3 Bft) 95,74 %
11.05.2017 23:48 14,9 C 13,9 C 12,2 C 86 % 0 lf 997,4 hPa 0,0 l/m 0 min 2 min 0 W/m 12,6 km/h (3 Bft) 95,65 %
11.05.2017 23:50 14,9 C 13,9 C 12,2 C 86 % 0 lf 997,4 hPa 0,0 l/m 0 min 0 min 0 W/m 10,5 km/h (2 Bft) 95,74 %
11.05.2017 23:52 14,9 C 13,9 C 12,2 C 85 % 1 lf 997,5 hPa 0,0 l/m 0 min 0 min 0 W/m 12,6 km/h (3 Bft) 95,74 %
11.05.2017 23:54 14,9 C 13,9 C 12,2 C 85 % 0 lf 997,5 hPa 0,0 l/m 0 min 0 min 0 W/m 16,7 km/h (3 Bft) 95,74 %
11.05.2017 23:56 14,9 C 13,9 C 12,2 C 85 % 0 lf 997,5 hPa 0,0 l/m 0 min 0 min 0 W/m 12,6 km/h (3 Bft) 93,62 %
11.05.2017 23:58 14,9 C 13,9 C 12,2 C 85 % 0 lf 997,5 hPa 0,0 l/m 0 min 0 min 0 W/m 10,5 km/h (2 Bft) 95,74 %
_ Min-Zeit 06:36 05:26 05:06 15:54 00:00 17:46 - - - - 04:14 16:40
Minimum _ 5,7 C 4,4 C 3,3 C 54 % 0 lf 994,7 hPa - - - - 0,0 km/h (0 Bft) 85,11 %
_ Max-Zeit 15:52 14:00 14:18 22:10 17:58 00:00 18:02 09:02 17:58 10:50 13:12 00:12
Maximum _ 23,7 C 31,1 C 31,7 C 95 % 15 lf 1003,5 hPa 0,6 l/m 2 min 2 min 938 W/m 31,4 km/h
O (5 Bft)
100,00 %
Durchschnitt _ 14,7 C 15,7 C 14,0 C 74 % 3 lf 998,3 hPa #3,6 l/m #2:30 h #1:42 h 177 W/m 11,1 km/h (2 Bft) 96,45 %
© 2017 W. Hausmann